Time,TemperatureF,DewpointF,PressureIn,WindDirection,WindDirectionDegrees,WindSpeedMPH,WindSpeedGustMPH,Humidity,HourlyPrecipIn,Conditions,Clouds,dailyrainin,SolarRadiationWatts/m^2,SoftwareType,DateUTC
2013-07-20 00:00:00,80.4,72.9,29.81,West,270,4.0,6.0,78,0.00,,,0.00,0.00,VWS V14.01,2013-07-20 04:00:00,
2013-07-20 00:01:00,80.4,72.9,29.81,West,263,12.0,12.0,78,0.00,,,0.00,0.00,VWS V14.01,2013-07-20 04:01:00,
2013-07-20 00:06:00,80.3,72.8,29.81,West,262,0.0,3.0,78,0.00,,,0.00,0.00,VWS V14.01,2013-07-20 04:06:00,
2013-07-20 00:11:00,80.3,72.8,29.81,West,266,2.0,8.0,78,0.00,,,0.00,0.00,VWS V14.01,2013-07-20 04:11:00,
2013-07-20 00:16:00,80.3,72.8,29.81,West,266,0.0,3.0,78,0.00,,,0.00,0.00,VWS V14.01,2013-07-20 04:16:00,
2013-07-20 00:21:00,80.2,72.7,29.81,West,277,1.0,6.0,78,0.00,,,0.00,0.00,VWS V14.01,2013-07-20 04:21:00,
2013-07-20 00:26:00,80.2,73.1,29.81,West,270,1.0,7.0,79,0.00,,,0.00,0.00,VWS V14.01,2013-07-20 04:26:00,
2013-07-20 00:31:00,80.1,73.0,29.80,West,265,5.0,7.0,79,0.00,,,0.00,0.00,VWS V14.01,2013-07-20 04:31:00,
2013-07-20 00:36:00,80.1,73.0,29.80,WSW,256,3.0,6.0,79,0.00,,,0.00,0.00,VWS V14.01,2013-07-20 04:36:00,
2013-07-20 00:41:00,80.0,72.9,29.80,WSW,250,5.0,6.0,79,0.00,,,0.00,0.00,VWS V14.01,2013-07-20 04:41:00,
2013-07-20 00:46:00,80.0,72.9,29.80,West,274,5.0,5.0,79,0.00,,,0.00,0.00,VWS V14.01,2013-07-20 04:46:00,
2013-07-20 00:47:00,80.0,72.9,29.80,West,277,4.0,5.0,79,0.00,,,0.00,0.00,VWS V14.01,2013-07-20 04:47:00,
2013-07-20 00:51:00,79.9,72.8,29.80,WSW,254,0.0,0.0,79,0.00,,,0.00,0.00,VWS V14.01,2013-07-20 04:51:00,
2013-07-20 00:52:00,79.9,72.8,29.80,WSW,254,0.0,2.0,79,0.00,,,0.00,0.00,VWS V14.01,2013-07-20 04:52:00,
2013-07-20 00:56:00,79.9,72.8,29.80,West,281,2.0,3.0,79,0.00,,,0.00,0.00,VWS V14.01,2013-07-20 04:56:00,
2013-07-20 00:57:00,79.9,72.8,29.80,WNW,285,4.0,4.0,79,0.00,,,0.00,0.00,VWS V14.01,2013-07-20 04:57:00,
2013-07-20 01:01:00,80.0,72.9,29.80,WNW,296,4.0,8.0,79,0.00,,,0.00,0.00,VWS V14.01,2013-07-20 05:01:00,
2013-07-20 01:02:00,80.0,72.9,29.80,WNW,296,2.0,8.0,79,0.00,,,0.00,0.00,VWS V14.01,2013-07-20 05:02:00,
2013-07-20 01:07:00,80.0,72.9,29.79,West,277,4.0,5.0,79,0.00,,,0.00,0.00,VWS V14.01,2013-07-20 05:07:00,
2013-07-20 01:12:00,80.0,72.9,29.79,West,279,3.0,5.0,79,0.00,,,0.00,0.00,VWS V14.01,2013-07-20 05:12:00,
2013-07-20 01:17:00,80.0,72.9,29.79,NW,309,3.0,3.0,79,0.00,,,0.00,0.00,VWS V14.01,2013-07-20 05:17:00,
2013-07-20 01:22:00,79.9,72.8,29.79,WNW,286,2.0,3.0,79,0.00,,,0.00,0.00,VWS V14.01,2013-07-20 05:22:00,
2013-07-20 01:23:00,79.9,72.8,29.79,West,276,4.0,6.0,79,0.00,,,0.00,0.00,VWS V14.01,2013-07-20 05:23:00,
2013-07-20 01:27:00,79.8,72.7,29.79,WSW,257,2.0,5.0,79,0.00,,,0.00,0.00,VWS V14.01,2013-07-20 05:27:00,
2013-07-20 01:28:00,79.8,72.7,29.79,WSW,256,0.0,5.0,79,0.00,,,0.00,0.00,VWS V14.01,2013-07-20 05:28:00,
2013-07-20 01:32:00,79.8,72.7,29.79,West,275,0.0,3.0,79,0.00,,,0.00,0.00,VWS V14.01,2013-07-20 05:32:00,
2013-07-20 01:33:00,79.8,72.7,29.79,West,275,1.0,1.0,79,0.00,,,0.00,0.00,VWS V14.01,2013-07-20 05:33:00,
2013-07-20 01:37:00,79.7,72.6,29.79,West,266,4.0,5.0,79,0.00,,,0.00,0.00,VWS V14.01,2013-07-20 05:37:00,
2013-07-20 01:38:00,79.7,72.6,29.79,West,265,1.0,4.0,79,0.00,,,0.00,0.00,VWS V14.01,2013-07-20 05:38:00,
2013-07-20 01:42:00,79.7,72.6,29.79,WNW,287,4.0,4.0,79,0.00,,,0.00,0.00,VWS V14.01,2013-07-20 05:42:00,
2013-07-20 01:43:00,79.7,72.6,29.79,WNW,288,0.0,1.0,79,0.00,,,0.00,0.00,VWS V14.01,2013-07-20 05:43:00,
2013-07-20 01:47:00,79.7,72.6,29.79,West,277,0.0,7.0,79,0.00,,,0.00,0.00,VWS V14.01,2013-07-20 05:47:00,
2013-07-20 01:48:00,79.7,72.6,29.78,West,278,4.0,4.0,79,0.00,,,0.00,0.00,VWS V14.01,2013-07-20 05:48:00,
2013-07-20 01:52:00,79.6,72.5,29.78,West,271,6.0,6.0,79,0.00,,,0.00,0.00,VWS V14.01,2013-07-20 05:52:00,
2013-07-20 01:53:00,79.6,72.5,29.79,NW,326,1.0,5.0,79,0.00,,,0.00,0.00,VWS V14.01,2013-07-20 05:53:00,
2013-07-20 01:57:00,79.6,72.5,29.79,West,263,3.0,4.0,79,0.00,,,0.00,0.00,VWS V14.01,2013-07-20 05:57:00,
2013-07-20 01:58:00,79.6,72.5,29.79,West,263,0.0,3.0,79,0.00,,,0.00,0.00,VWS V14.01,2013-07-20 05:58:00,
2013-07-20 02:02:00,79.6,72.5,29.78,WNW,303,2.0,4.0,79,0.00,,,0.00,0.00,VWS V14.01,2013-07-20 06:02:00,
2013-07-20 02:03:00,79.6,72.5,29.79,West,271,3.0,7.0,79,0.00,,,0.00,0.00,VWS V14.01,2013-07-20 06:03:00,
2013-07-20 02:07:00,79.5,72.4,29.78,West,261,0.0,2.0,79,0.00,,,0.00,0.00,VWS V14.01,2013-07-20 06:07:00,
2013-07-20 02:08:00,79.5,72.4,29.78,WNW,283,0.0,3.0,79,0.00,,,0.00,0.00,VWS V14.01,2013-07-20 06:08:00,
2013-07-20 02:12:00,79.5,72.4,29.78,WNW,289,6.0,8.0,79,0.00,,,0.00,0.00,VWS V14.01,2013-07-20 06:12:00,
2013-07-20 02:13:00,79.5,72.4,29.78,West,281,5.0,10.0,79,0.00,,,0.00,0.00,VWS V14.01,2013-07-20 06:13:00,
2013-07-20 02:17:00,79.5,72.4,29.78,WNW,286,3.0,4.0,79,0.00,,,0.00,0.00,VWS V14.01,2013-07-20 06:17:00,
2013-07-20 02:18:00,79.5,72.4,29.78,WNW,288,0.0,4.0,79,0.00,,,0.00,0.00,VWS V14.01,2013-07-20 06:18:00,
2013-07-20 02:22:00,79.5,72.4,29.77,West,270,1.0,3.0,79,0.00,,,0.00,0.00,VWS V14.01,2013-07-20 06:22:00,
2013-07-20 02:23:00,79.5,72.8,29.77,West,270,4.0,4.0,80,0.00,,,0.00,0.00,VWS V14.01,2013-07-20 06:23:00,
2013-07-20 02:27:00,79.4,72.7,29.77,WNW,288,3.0,4.0,80,0.00,,,0.00,0.00,VWS V14.01,2013-07-20 06:27:00,
2013-07-20 02:28:00,79.4,72.7,29.77,WNW,283,3.0,12.0,80,0.00,,,0.00,0.00,VWS V14.01,2013-07-20 06:28:00,
2013-07-20 02:32:00,79.4,72.7,29.77,West,281,0.0,0.0,80,0.00,,,0.00,0.00,VWS V14.01,2013-07-20 06:32:00,
2013-07-20 02:33:00,79.5,72.8,29.77,WNW,283,2.0,5.0,80,0.00,,,0.00,0.00,VWS V14.01,2013-07-20 06:33:00,
2013-07-20 02:34:00,79.5,72.4,29.77,WNW,284,4.0,8.0,79,0.00,,,0.00,0.00,VWS V14.01,2013-07-20 06:34:00,
2013-07-20 02:37:00,79.4,72.3,29.77,West,264,3.0,4.0,79,0.00,,,0.00,0.00,VWS V14.01,2013-07-20 06:37:00,
2013-07-20 02:38:00,79.5,72.8,29.77,West,263,6.0,6.0,80,0.00,,,0.00,0.00,VWS V14.01,2013-07-20 06:38:00,
2013-07-20 02:39:00,79.5,72.8,29.77,West,276,0.0,0.0,80,0.00,,,0.00,0.00,VWS V14.01,2013-07-20 06:39:00,
2013-07-20 02:43:00,79.4,72.7,29.77,WSW,254,5.0,5.0,80,0.00,,,0.00,0.00,VWS V14.01,2013-07-20 06:43:00,
2013-07-20 02:44:00,79.4,72.7,29.77,WSW,257,6.0,6.0,80,0.00,,,0.00,0.00,VWS V14.01,2013-07-20 06:44:00,
2013-07-20 02:48:00,79.4,72.7,29.77,West,265,1.0,3.0,80,0.00,,,0.00,0.00,VWS V14.01,2013-07-20 06:48:00,
2013-07-20 02:49:00,79.4,72.7,29.77,West,281,3.0,8.0,80,0.00,,,0.00,0.00,VWS V14.01,2013-07-20 06:49:00,
2013-07-20 02:53:00,79.3,72.6,29.77,West,279,1.0,4.0,80,0.00,,,0.00,0.00,VWS V14.01,2013-07-20 06:53:00,
2013-07-20 02:54:00,79.3,72.6,29.77,WSW,257,1.0,4.0,80,0.00,,,0.00,0.00,VWS V14.01,2013-07-20 06:54:00,
2013-07-20 02:58:00,79.2,72.5,29.77,West,276,5.0,5.0,80,0.00,,,0.00,0.00,VWS V14.01,2013-07-20 06:58:00,
2013-07-20 02:59:00,79.2,72.5,29.77,West,277,1.0,4.0,80,0.00,,,0.00,0.00,VWS V14.01,2013-07-20 06:59:00,
2013-07-20 03:03:00,79.2,72.5,29.77,NW,317,3.0,3.0,80,0.00,,,0.00,0.00,VWS V14.01,2013-07-20 07:03:00,
2013-07-20 03:04:00,79.2,72.5,29.77,West,281,3.0,4.0,80,0.00,,,0.00,0.00,VWS V14.01,2013-07-20 07:04:00,
2013-07-20 03:08:00,79.2,72.5,29.77,West,265,2.0,7.0,80,0.00,,,0.00,0.00,VWS V14.01,2013-07-20 07:08:00,
2013-07-20 03:09:00,79.2,72.5,29.77,WNW,303,1.0,2.0,80,0.00,,,0.00,0.00,VWS V14.01,2013-07-20 07:09:00,
2013-07-20 03:10:00,79.2,72.5,29.77,WNW,303,1.0,1.0,80,0.00,,,0.00,0.00,VWS V14.01,2013-07-20 07:10:00,
2013-07-20 03:13:00,79.2,72.5,29.77,West,274,2.0,8.0,80,0.00,,,0.00,0.00,VWS V14.01,2013-07-20 07:13:00,
2013-07-20 03:14:00,79.2,72.5,29.77,West,272,0.0,2.0,80,0.00,,,0.00,0.00,VWS V14.01,2013-07-20 07:14:00,
2013-07-20 03:15:00,79.1,72.4,29.77,NW,304,0.0,3.0,80,0.00,,,0.00,0.00,VWS V14.01,2013-07-20 07:15:00,
2013-07-20 03:18:00,79.2,72.5,29.77,WSW,255,5.0,5.0,80,0.00,,,0.00,0.00,VWS V14.01,2013-07-20 07:18:00,
2013-07-20 03:19:00,79.2,72.5,29.77,WNW,288,0.0,1.0,80,0.00,,,0.00,0.00,VWS V14.01,2013-07-20 07:19:00,
2013-07-20 03:20:00,79.2,72.5,29.77,West,281,10.0,10.0,80,0.00,,,0.00,0.00,VWS V14.01,2013-07-20 07:20:00,
2013-07-20 03:23:00,79.2,72.5,29.77,West,275,0.0,7.0,80,0.00,,,0.00,0.00,VWS V14.01,2013-07-20 07:23:00,
2013-07-20 03:24:00,79.2,72.5,29.77,West,269,3.0,7.0,80,0.00,,,0.00,0.00,VWS V14.01,2013-07-20 07:24:00,
2013-07-20 03:25:00,79.2,72.5,29.77,West,280,0.0,2.0,80,0.00,,,0.00,0.00,VWS V14.01,2013-07-20 07:25:00,
2013-07-20 03:28:00,79.2,72.5,29.77,WNW,290,7.0,7.0,80,0.00,,,0.00,0.00,VWS V14.01,2013-07-20 07:28:00,
2013-07-20 03:29:00,79.2,72.5,29.77,WNW,288,0.0,10.0,80,0.00,,,0.00,0.00,VWS V14.01,2013-07-20 07:29:00,
2013-07-20 03:30:00,79.2,72.5,29.77,WNW,302,4.0,4.0,80,0.00,,,0.00,0.00,VWS V14.01,2013-07-20 07:30:00,
2013-07-20 03:33:00,79.2,72.5,29.77,West,279,4.0,10.0,80,0.00,,,0.00,0.00,VWS V14.01,2013-07-20 07:33:00,
2013-07-20 03:34:00,79.2,72.5,29.77,WNW,283,1.0,2.0,80,0.00,,,0.00,0.00,VWS V14.01,2013-07-20 07:34:00,
2013-07-20 03:35:00,79.2,72.5,29.77,West,272,7.0,15.0,80,0.00,,,0.00,0.00,VWS V14.01,2013-07-20 07:35:00,
2013-07-20 03:38:00,79.2,72.5,29.77,West,265,2.0,12.0,80,0.00,,,0.00,0.00,VWS V14.01,2013-07-20 07:38:00,
2013-07-20 03:39:00,79.2,72.5,29.77,WNW,301,4.0,8.0,80,0.00,,,0.00,0.00,VWS V14.01,2013-07-20 07:39:00,
2013-07-20 03:41:00,79.2,72.5,29.77,West,273,1.0,8.0,80,0.00,,,0.00,0.00,VWS V14.01,2013-07-20 07:41:00,
2013-07-20 03:43:00,79.1,72.4,29.76,West,267,0.0,1.0,80,0.00,,,0.00,0.00,VWS V14.01,2013-07-20 07:43:00,
2013-07-20 03:44:00,79.1,72.4,29.77,West,267,8.0,9.0,80,0.00,,,0.00,0.00,VWS V14.01,2013-07-20 07:44:00,
2013-07-20 03:46:00,79.1,72.4,29.76,West,280,11.0,11.0,80,0.00,,,0.00,0.00,VWS V14.01,2013-07-20 07:46:00,
2013-07-20 03:48:00,79.1,72.4,29.76,West,268,8.0,10.0,80,0.00,,,0.00,0.00,VWS V14.01,2013-07-20 07:48:00,
2013-07-20 03:49:00,79.0,72.3,29.76,North,5,3.0,8.0,80,0.00,,,0.00,0.00,VWS V14.01,2013-07-20 07:49:00,
2013-07-20 03:51:00,79.0,72.3,29.76,NW,325,2.0,5.0,80,0.00,,,0.00,0.00,VWS V14.01,2013-07-20 07:51:00,
2013-07-20 03:53:00,78.9,72.2,29.76,West,266,0.0,10.0,80,0.00,,,0.00,0.00,VWS V14.01,2013-07-20 07:53:00,
2013-07-20 03:54:00,78.9,72.6,29.76,WNW,288,4.0,5.0,81,0.00,,,0.00,0.00,VWS V14.01,2013-07-20 07:54:00,
2013-07-20 03:56:00,78.8,72.5,29.76,WNW,287,1.0,1.0,81,0.00,,,0.00,0.00,VWS V14.01,2013-07-20 07:56:00,
2013-07-20 03:58:00,78.8,72.5,29.76,West,273,3.0,12.0,81,0.00,,,0.00,0.00,VWS V14.01,2013-07-20 07:58:00,
2013-07-20 03:59:00,78.7,72.4,29.76,NW,304,6.0,7.0,81,0.00,,,0.00,0.00,VWS V14.01,2013-07-20 07:59:00,
2013-07-20 04:01:00,78.7,72.4,29.75,WNW,290,6.0,6.0,81,0.00,,,0.00,0.00,VWS V14.01,2013-07-20 08:01:00,
2013-07-20 04:03:00,78.6,72.3,29.75,West,273,0.0,6.0,81,0.00,,,0.00,0.00,VWS V14.01,2013-07-20 08:03:00,
2013-07-20 04:04:00,78.6,72.3,29.75,WNW,290,3.0,9.0,81,0.00,,,0.00,0.00,VWS V14.01,2013-07-20 08:04:00,
2013-07-20 04:06:00,78.5,72.2,29.75,WNW,284,2.0,7.0,81,0.00,,,0.00,0.00,VWS V14.01,2013-07-20 08:06:00,
2013-07-20 04:08:00,78.5,72.2,29.75,NW,324,0.0,5.0,81,0.00,,,0.00,0.00,VWS V14.01,2013-07-20 08:08:00,
2013-07-20 04:09:00,78.4,72.1,29.75,NW,322,2.0,3.0,81,0.00,,,0.00,0.00,VWS V14.01,2013-07-20 08:09:00,
2013-07-20 04:10:00,78.4,72.1,29.75,NW,321,2.0,2.0,81,0.00,,,0.00,0.00,VWS V14.01,2013-07-20 08:10:00,
2013-07-20 04:11:00,78.4,72.1,29.75,West,271,1.0,5.0,81,0.00,,,0.00,0.00,VWS V14.01,2013-07-20 08:11:00,
2013-07-20 04:13:00,78.3,72.0,29.75,WNW,289,4.0,7.0,81,0.00,,,0.00,0.00,VWS V14.01,2013-07-20 08:13:00,
2013-07-20 04:14:00,78.3,72.4,29.75,West,267,5.0,5.0,82,0.00,,,0.00,0.00,VWS V14.01,2013-07-20 08:14:00,
2013-07-20 04:15:00,78.3,72.4,29.75,West,262,3.0,7.0,82,0.00,,,0.00,0.00,VWS V14.01,2013-07-20 08:15:00,
2013-07-20 04:16:00,78.2,71.9,29.75,WSW,248,3.0,5.0,81,0.00,,,0.00,0.00,VWS V14.01,2013-07-20 08:16:00,
2013-07-20 04:18:00,78.2,72.3,29.75,WSW,255,2.0,7.0,82,0.00,,,0.00,0.00,VWS V14.01,2013-07-20 08:18:00,
2013-07-20 04:19:00,78.1,72.2,29.75,West,259,1.0,1.0,82,0.00,,,0.00,0.00,VWS V14.01,2013-07-20 08:19:00,
2013-07-20 04:20:00,78.1,72.2,29.75,West,264,1.0,5.0,82,0.00,,,0.00,0.00,VWS V14.01,2013-07-20 08:20:00,
2013-07-20 04:21:00,78.1,72.2,29.75,West,281,4.0,4.0,82,0.00,,,0.00,0.00,VWS V14.01,2013-07-20 08:21:00,
2013-07-20 04:23:00,78.0,72.1,29.75,WNW,282,2.0,4.0,82,0.00,,,0.00,0.00,VWS V14.01,2013-07-20 08:23:00,
2013-07-20 04:24:00,78.0,72.1,29.75,WNW,286,5.0,6.0,82,0.00,,,0.00,0.00,VWS V14.01,2013-07-20 08:24:00,
2013-07-20 04:25:00,78.0,72.1,29.75,WNW,299,0.0,6.0,82,0.00,,,0.00,0.00,VWS V14.01,2013-07-20 08:25:00,
2013-07-20 04:27:00,78.0,72.1,29.75,WNW,299,1.0,1.0,82,0.00,,,0.00,0.00,VWS V14.01,2013-07-20 08:27:00,
2013-07-20 04:28:00,77.9,72.0,29.75,West,279,5.0,6.0,82,0.00,,,0.00,0.00,VWS V14.01,2013-07-20 08:28:00,
2013-07-20 04:29:00,77.9,72.0,29.75,WNW,288,6.0,6.0,82,0.00,,,0.00,0.00,VWS V14.01,2013-07-20 08:29:00,
2013-07-20 04:30:00,77.9,72.0,29.75,WNW,293,2.0,6.0,82,0.00,,,0.00,0.00,VWS V14.01,2013-07-20 08:30:00,
2013-07-20 04:32:00,77.9,72.0,29.75,NNW,329,5.0,10.0,82,0.00,,,0.00,0.00,VWS V14.01,2013-07-20 08:32:00,
2013-07-20 04:33:00,77.9,72.0,29.75,West,270,1.0,6.0,82,0.00,,,0.00,0.00,VWS V14.01,2013-07-20 08:33:00,
2013-07-20 04:34:00,77.9,72.0,29.75,NW,319,3.0,3.0,82,0.00,,,0.00,0.00,VWS V14.01,2013-07-20 08:34:00,
2013-07-20 04:35:00,77.9,72.0,29.75,WNW,285,1.0,7.0,82,0.00,,,0.00,0.00,VWS V14.01,2013-07-20 08:35:00,
2013-07-20 04:37:00,77.9,72.0,29.75,West,275,3.0,7.0,82,0.00,,,0.00,0.00,VWS V14.01,2013-07-20 08:37:00,
2013-07-20 04:38:00,77.8,71.9,29.75,West,273,2.0,6.0,82,0.00,,,0.00,0.00,VWS V14.01,2013-07-20 08:38:00,
2013-07-20 04:39:00,77.8,71.9,29.75,WNW,292,3.0,4.0,82,0.00,,,0.00,0.00,VWS V14.01,2013-07-20 08:39:00,
2013-07-20 04:40:00,77.8,71.9,29.75,WNW,292,0.0,4.0,82,0.00,,,0.00,0.00,VWS V14.01,2013-07-20 08:40:00,
2013-07-20 04:42:00,77.8,71.9,29.75,WNW,288,5.0,5.0,82,0.00,,,0.00,0.00,VWS V14.01,2013-07-20 08:42:00,
2013-07-20 04:43:00,77.8,71.9,29.75,WNW,286,2.0,3.0,82,0.00,,,0.00,0.00,VWS V14.01,2013-07-20 08:43:00,
2013-07-20 04:45:00,77.8,71.9,29.74,West,260,3.0,4.0,82,0.00,,,0.00,0.00,VWS V14.01,2013-07-20 08:45:00,
2013-07-20 04:47:00,77.8,71.9,29.75,West,262,1.0,11.0,82,0.00,,,0.00,0.00,VWS V14.01,2013-07-20 08:47:00,
2013-07-20 04:48:00,77.7,71.8,29.74,West,260,2.0,2.0,82,0.00,,,0.00,0.00,VWS V14.01,2013-07-20 08:48:00,
2013-07-20 04:50:00,77.7,71.8,29.74,WNW,287,3.0,4.0,82,0.00,,,0.00,0.00,VWS V14.01,2013-07-20 08:50:00,
2013-07-20 04:52:00,77.7,71.8,29.74,West,280,4.0,7.0,82,0.00,,,0.00,0.00,VWS V14.01,2013-07-20 08:52:00,
2013-07-20 04:53:00,77.7,71.8,29.74,WNW,300,2.0,2.0,82,0.00,,,0.00,0.00,VWS V14.01,2013-07-20 08:53:00,
2013-07-20 04:55:00,77.7,71.8,29.75,West,264,6.0,6.0,82,0.00,,,0.00,0.00,VWS V14.01,2013-07-20 08:55:00,
2013-07-20 04:57:00,77.7,71.8,29.75,WNW,286,5.0,6.0,82,0.00,,,0.00,0.00,VWS V14.01,2013-07-20 08:57:00,
2013-07-20 04:58:00,77.7,71.8,29.74,West,275,5.0,5.0,82,0.00,,,0.00,0.00,VWS V14.01,2013-07-20 08:58:00,
2013-07-20 05:00:00,77.7,71.8,29.75,West,275,3.0,7.0,82,0.00,,,0.00,0.00,VWS V14.01,2013-07-20 09:00:00,
2013-07-20 05:02:00,77.8,71.9,29.74,West,268,1.0,2.0,82,0.00,,,0.00,0.00,VWS V14.01,2013-07-20 09:02:00,
2013-07-20 05:04:00,77.8,71.5,29.75,West,261,4.0,6.0,81,0.00,,,0.00,0.00,VWS V14.01,2013-07-20 09:04:00,
2013-07-20 05:05:00,77.8,71.5,29.75,WNW,282,2.0,6.0,81,0.00,,,0.00,0.00,VWS V14.01,2013-07-20 09:05:00,
2013-07-20 05:07:00,77.8,71.5,29.75,West,274,9.0,9.0,81,0.00,,,0.00,0.00,VWS V14.01,2013-07-20 09:07:00,
2013-07-20 05:09:00,77.8,71.5,29.75,WNW,291,1.0,3.0,81,0.00,,,0.00,0.00,VWS V14.01,2013-07-20 09:09:00,
2013-07-20 05:10:00,77.8,71.5,29.75,WNW,291,0.0,1.0,81,0.00,,,0.00,0.00,VWS V14.01,2013-07-20 09:10:00,
2013-07-20 05:12:00,77.8,71.5,29.75,West,275,7.0,8.0,81,0.00,,,0.00,0.00,VWS V14.01,2013-07-20 09:12:00,
2013-07-20 05:14:00,77.8,71.5,29.75,North,9,5.0,6.0,81,0.00,,,0.00,0.00,VWS V14.01,2013-07-20 09:14:00,
2013-07-20 05:15:00,77.8,71.5,29.75,North,355,5.0,6.0,81,0.00,,,0.00,0.00,VWS V14.01,2013-07-20 09:15:00,
2013-07-20 05:17:00,77.8,71.5,29.75,NNW,343,5.0,6.0,81,0.00,,,0.00,0.00,VWS V14.01,2013-07-20 09:17:00,
2013-07-20 05:19:00,77.8,71.5,29.75,NNW,347,2.0,5.0,81,0.00,,,0.00,0.00,VWS V14.01,2013-07-20 09:19:00,
2013-07-20 05:20:00,77.8,71.5,29.75,NNW,346,0.0,4.0,81,0.00,,,0.00,0.00,VWS V14.01,2013-07-20 09:20:00,
2013-07-20 05:22:00,77.8,71.5,29.75,North,360,1.0,1.0,81,0.00,,,0.00,0.00,VWS V14.01,2013-07-20 09:22:00,
2013-07-20 05:24:00,77.8,71.5,29.75,NNW,333,1.0,4.0,81,0.00,,,0.00,0.00,VWS V14.01,2013-07-20 09:24:00,
2013-07-20 05:25:00,77.8,71.5,29.75,NNW,333,0.0,1.0,81,0.00,,,0.00,0.00,VWS V14.01,2013-07-20 09:25:00,
2013-07-20 05:27:00,77.8,71.5,29.75,NNW,337,0.0,0.0,81,0.00,,,0.00,0.00,VWS V14.01,2013-07-20 09:27:00,
2013-07-20 05:29:00,77.8,71.5,29.75,NNW,337,1.0,1.0,81,0.00,,,0.00,0.00,VWS V14.01,2013-07-20 09:29:00,
2013-07-20 05:30:00,77.8,71.5,29.75,NNW,337,0.0,1.0,81,0.00,,,0.00,0.00,VWS V14.01,2013-07-20 09:30:00,
2013-07-20 05:32:00,77.8,71.5,29.75,North,355,2.0,2.0,81,0.00,,,0.00,0.00,VWS V14.01,2013-07-20 09:32:00,
2013-07-20 05:34:00,77.7,71.4,29.75,North,351,0.0,1.0,81,0.00,,,0.00,0.00,VWS V14.01,2013-07-20 09:34:00,
2013-07-20 05:35:00,77.7,71.4,29.75,North,351,0.0,1.0,81,0.00,,,0.00,0.00,VWS V14.01,2013-07-20 09:35:00,
2013-07-20 05:36:00,77.7,71.4,29.75,North,351,0.0,0.0,81,0.00,,,0.00,0.00,VWS V14.01,2013-07-20 09:36:00,
2013-07-20 05:37:00,77.7,71.4,29.75,North,351,0.0,0.0,81,0.00,,,0.00,0.00,VWS V14.01,2013-07-20 09:37:00,
2013-07-20 05:39:00,77.6,71.3,29.75,North,349,1.0,1.0,81,0.00,,,0.00,0.00,VWS V14.01,2013-07-20 09:39:00,
2013-07-20 05:40:00,77.7,71.4,29.75,NNW,329,0.0,2.0,81,0.00,,,0.00,0.00,VWS V14.01,2013-07-20 09:40:00,
2013-07-20 05:41:00,77.7,71.4,29.75,West,281,6.0,6.0,81,0.00,,,0.00,0.00,VWS V14.01,2013-07-20 09:41:00,
2013-07-20 05:42:00,77.6,71.3,29.75,West,281,0.0,1.0,81,0.00,,,0.00,0.00,VWS V14.01,2013-07-20 09:42:00,
2013-07-20 05:44:00,77.6,71.3,29.75,WNW,291,0.0,0.0,81,0.00,,,0.00,0.00,VWS V14.01,2013-07-20 09:44:00,
2013-07-20 05:45:00,77.6,71.3,29.75,WNW,291,0.0,1.0,81,0.00,,,0.00,0.00,VWS V14.01,2013-07-20 09:45:00,
2013-07-20 05:46:00,77.6,71.3,29.75,WNW,291,0.0,1.0,81,0.00,,,0.00,0.00,VWS V14.01,2013-07-20 09:46:00,
2013-07-20 05:47:00,77.6,71.7,29.75,WNW,293,0.0,1.0,82,0.00,,,0.00,0.00,VWS V14.01,2013-07-20 09:47:00,
2013-07-20 05:49:00,77.6,71.3,29.75,WNW,287,0.0,0.0,81,0.00,,,0.00,0.00,VWS V14.01,2013-07-20 09:49:00,
2013-07-20 05:50:00,77.6,71.7,29.75,WNW,287,0.0,2.0,82,0.00,,,0.00,0.00,VWS V14.01,2013-07-20 09:50:00,
2013-07-20 05:51:00,77.6,71.3,29.75,WNW,286,1.0,1.0,81,0.00,,,0.00,0.00,VWS V14.01,2013-07-20 09:51:00,
2013-07-20 05:52:00,77.6,71.7,29.75,WNW,286,0.0,0.0,82,0.00,,,0.00,0.00,VWS V14.01,2013-07-20 09:52:00,
2013-07-20 05:54:00,77.6,71.7,29.76,WSW,246,0.0,1.0,82,0.00,,,0.00,0.00,VWS V14.01,2013-07-20 09:54:00,
2013-07-20 05:55:00,77.6,71.7,29.75,WSW,246,0.0,0.0,82,0.00,,,0.00,0.00,VWS V14.01,2013-07-20 09:55:00,
2013-07-20 05:56:00,77.6,71.7,29.75,WSW,246,0.0,1.0,82,0.00,,,0.00,0.00,VWS V14.01,2013-07-20 09:56:00,
2013-07-20 05:58:00,77.6,71.7,29.76,WSW,246,0.0,3.0,82,0.00,,,0.00,0.00,VWS V14.01,2013-07-20 09:58:00,
2013-07-20 05:59:00,77.6,71.7,29.76,SSW,213,0.0,0.0,82,0.00,,,0.00,0.00,VWS V14.01,2013-07-20 09:59:00,
2013-07-20 06:00:00,77.6,71.7,29.76,SSW,213,0.0,1.0,82,0.00,,,0.00,0.00,VWS V14.01,2013-07-20 10:00:00,
2013-07-20 06:01:00,77.6,71.7,29.76,SSW,210,1.0,1.0,82,0.00,,,0.00,0.00,VWS V14.01,2013-07-20 10:01:00,
2013-07-20 06:03:00,77.6,71.7,29.76,SSW,211,0.0,1.0,82,0.00,,,0.00,0.00,VWS V14.01,2013-07-20 10:03:00,
2013-07-20 06:05:00,77.6,71.7,29.76,NNW,344,0.0,2.0,82,0.00,,,0.00,0.00,VWS V14.01,2013-07-20 10:05:00,
2013-07-20 06:06:00,77.6,71.7,29.76,NNW,344,0.0,1.0,82,0.00,,,0.00,0.00,VWS V14.01,2013-07-20 10:06:00,
2013-07-20 06:08:00,77.5,71.6,29.76,NNW,340,0.0,1.0,82,0.00,,,0.00,0.00,VWS V14.01,2013-07-20 10:08:00,
2013-07-20 06:10:00,77.5,71.6,29.76,NNW,341,0.0,0.0,82,0.00,,,0.00,0.00,VWS V14.01,2013-07-20 10:10:00,
2013-07-20 06:11:00,77.5,71.6,29.76,WNW,284,1.0,5.0,82,0.00,,,0.00,0.00,VWS V14.01,2013-07-20 10:11:00,
2013-07-20 06:13:00,77.5,71.6,29.76,WNW,284,0.0,0.0,82,0.00,,,0.00,0.00,VWS V14.01,2013-07-20 10:13:00,
2013-07-20 06:15:00,77.5,71.6,29.76,WNW,284,0.0,0.0,82,0.00,,,0.00,0.00,VWS V14.01,2013-07-20 10:15:00,
2013-07-20 06:16:00,77.5,71.6,29.76,WNW,284,0.0,1.0,82,0.00,,,0.00,0.00,VWS V14.01,2013-07-20 10:16:00,
2013-07-20 06:18:00,77.5,71.6,29.76,WNW,285,1.0,1.0,82,0.00,,,0.00,0.00,VWS V14.01,2013-07-20 10:18:00,
2013-07-20 06:20:00,77.5,71.6,29.76,WNW,285,0.0,1.0,82,0.00,,,0.00,0.00,VWS V14.01,2013-07-20 10:20:00,
2013-07-20 06:21:00,77.5,71.6,29.76,WNW,285,1.0,1.0,82,0.00,,,0.00,0.00,VWS V14.01,2013-07-20 10:21:00,
2013-07-20 06:23:00,77.5,71.6,29.76,West,279,0.0,2.0,82,0.00,,,0.00,0.00,VWS V14.01,2013-07-20 10:23:00,
2013-07-20 06:25:00,77.5,71.6,29.76,West,279,1.0,1.0,82,0.00,,,0.00,0.00,VWS V14.01,2013-07-20 10:25:00,
2013-07-20 06:26:00,77.5,71.6,29.76,West,279,1.0,1.0,82,0.00,,,0.00,0.00,VWS V14.01,2013-07-20 10:26:00,
2013-07-20 06:28:00,77.4,71.5,29.76,West,279,0.0,0.0,82,0.00,,,0.00,0.00,VWS V14.01,2013-07-20 10:28:00,
2013-07-20 06:30:00,77.4,71.5,29.76,WNW,303,0.0,1.0,82,0.00,,,0.00,0.00,VWS V14.01,2013-07-20 10:30:00,
2013-07-20 06:31:00,77.4,71.5,29.76,WNW,302,1.0,2.0,82,0.00,,,0.00,0.00,VWS V14.01,2013-07-20 10:31:00,
2013-07-20 06:33:00,77.4,71.5,29.76,WNW,302,0.0,0.0,82,0.00,,,0.00,0.00,VWS V14.01,2013-07-20 10:33:00,
2013-07-20 06:35:00,77.4,71.5,29.76,WNW,302,0.0,0.0,82,0.00,,,0.00,0.00,VWS V14.01,2013-07-20 10:35:00,
2013-07-20 06:36:00,77.4,71.5,29.76,WNW,302,0.0,2.0,82,0.00,,,0.00,0.00,VWS V14.01,2013-07-20 10:36:00,
2013-07-20 06:38:00,77.3,71.4,29.76,WNW,302,0.0,0.0,82,0.00,,,0.00,0.00,VWS V14.01,2013-07-20 10:38:00,
2013-07-20 06:40:00,77.3,71.7,29.77,WNW,302,0.0,0.0,83,0.00,,,0.00,0.00,VWS V14.01,2013-07-20 10:40:00,
2013-07-20 06:41:00,77.2,71.6,29.77,WNW,302,0.0,0.0,83,0.00,,,0.00,0.00,VWS V14.01,2013-07-20 10:41:00,
2013-07-20 06:43:00,77.2,71.6,29.77,WNW,290,0.0,1.0,83,0.00,,,0.00,0.00,VWS V14.01,2013-07-20 10:43:00,
2013-07-20 06:45:00,77.1,71.5,29.77,WNW,290,0.0,0.0,83,0.00,,,0.00,0.00,VWS V14.01,2013-07-20 10:45:00,
2013-07-20 06:46:00,77.1,71.5,29.77,WNW,290,1.0,2.0,83,0.00,,,0.00,0.00,VWS V14.01,2013-07-20 10:46:00,
2013-07-20 06:48:00,77.1,71.5,29.77,WNW,290,0.0,2.0,83,0.00,,,0.00,0.00,VWS V14.01,2013-07-20 10:48:00,
2013-07-20 06:50:00,77.0,71.4,29.77,WNW,290,0.0,0.0,83,0.00,,,0.00,0.00,VWS V14.01,2013-07-20 10:50:00,
2013-07-20 06:51:00,77.0,71.4,29.77,WNW,290,0.0,1.0,83,0.00,,,0.00,0.00,VWS V14.01,2013-07-20 10:51:00,
2013-07-20 06:53:00,77.0,71.4,29.77,WNW,290,0.0,3.0,83,0.00,,,0.00,0.00,VWS V14.01,2013-07-20 10:53:00,
2013-07-20 06:55:00,76.9,71.3,29.77,WNW,290,0.0,0.0,83,0.00,,,0.00,0.00,VWS V14.01,2013-07-20 10:55:00,
2013-07-20 06:56:00,76.9,71.3,29.77,WNW,290,0.0,0.0,83,0.00,,,0.00,0.00,VWS V14.01,2013-07-20 10:56:00,
2013-07-20 06:57:00,76.9,71.3,29.77,WNW,290,0.0,0.0,83,0.00,,,0.00,0.00,VWS V14.01,2013-07-20 10:57:00,
2013-07-20 06:58:00,76.9,71.7,29.77,WNW,290,0.0,0.0,84,0.00,,,0.00,0.00,VWS V14.01,2013-07-20 10:58:00,
2013-07-20 07:00:00,76.8,71.6,29.77,WNW,290,0.0,2.0,84,0.00,,,0.00,0.00,VWS V14.01,2013-07-20 11:00:00,
2013-07-20 07:01:00,76.8,71.6,29.77,WNW,290,0.0,0.0,84,0.00,,,0.00,0.00,VWS V14.01,2013-07-20 11:01:00,
2013-07-20 07:02:00,76.8,71.6,29.77,WNW,290,0.0,0.0,84,0.00,,,0.00,0.00,VWS V14.01,2013-07-20 11:02:00,
2013-07-20 07:03:00,76.7,71.5,29.77,WNW,290,1.0,1.0,84,0.00,,,0.00,0.00,VWS V14.01,2013-07-20 11:03:00,
2013-07-20 07:05:00,76.7,71.5,29.77,WNW,290,0.0,0.0,84,0.00,,,0.00,0.00,VWS V14.01,2013-07-20 11:05:00,
2013-07-20 07:06:00,76.7,71.5,29.77,WNW,290,1.0,3.0,84,0.00,,,0.00,0.00,VWS V14.01,2013-07-20 11:06:00,
2013-07-20 07:07:00,76.7,71.5,29.77,WNW,290,3.0,3.0,84,0.00,,,0.00,0.00,VWS V14.01,2013-07-20 11:07:00,
2013-07-20 07:08:00,76.7,71.5,29.77,WNW,290,0.0,0.0,84,0.00,,,0.00,0.00,VWS V14.01,2013-07-20 11:08:00,
2013-07-20 07:10:00,76.6,71.4,29.77,WNW,290,0.0,0.0,84,0.00,,,0.00,0.00,VWS V14.01,2013-07-20 11:10:00,
2013-07-20 07:11:00,76.6,71.4,29.77,WNW,290,0.0,1.0,84,0.00,,,0.00,0.00,VWS V14.01,2013-07-20 11:11:00,
2013-07-20 07:12:00,76.6,71.4,29.77,WNW,290,0.0,0.0,84,0.00,,,0.00,0.00,VWS V14.01,2013-07-20 11:12:00,
2013-07-20 07:13:00,76.6,71.4,29.77,WNW,290,0.0,1.0,84,0.00,,,0.00,0.00,VWS V14.01,2013-07-20 11:13:00,
2013-07-20 07:15:00,76.6,71.4,29.77,WNW,290,2.0,2.0,84,0.00,,,0.00,0.00,VWS V14.01,2013-07-20 11:15:00,
2013-07-20 07:16:00,76.5,71.3,29.77,WNW,290,0.0,3.0,84,0.00,,,0.00,0.00,VWS V14.01,2013-07-20 11:16:00,
2013-07-20 07:17:00,76.6,71.4,29.77,WNW,290,0.0,1.0,84,0.00,,,0.00,0.00,VWS V14.01,2013-07-20 11:17:00,
2013-07-20 07:18:00,76.5,71.7,29.77,WNW,290,0.0,0.0,85,0.00,,,0.00,0.00,VWS V14.01,2013-07-20 11:18:00,
2013-07-20 07:20:00,76.5,71.7,29.77,WNW,290,0.0,1.0,85,0.00,,,0.00,0.00,VWS V14.01,2013-07-20 11:20:00,
2013-07-20 07:21:00,76.4,71.6,29.77,WNW,290,0.0,1.0,85,0.00,,,0.00,0.00,VWS V14.01,2013-07-20 11:21:00,
2013-07-20 07:22:00,76.5,71.7,29.77,WNW,290,0.0,2.0,85,0.00,,,0.00,0.00,VWS V14.01,2013-07-20 11:22:00,
2013-07-20 07:23:00,76.4,71.6,29.77,WNW,296,2.0,3.0,85,0.00,,,0.00,0.00,VWS V14.01,2013-07-20 11:23:00,
2013-07-20 07:25:00,76.4,71.6,29.77,West,273,0.0,0.0,85,0.00,,,0.00,0.00,VWS V14.01,2013-07-20 11:25:00,
2013-07-20 07:26:00,76.4,71.6,29.77,West,273,1.0,1.0,85,0.00,,,0.00,0.00,VWS V14.01,2013-07-20 11:26:00,
2013-07-20 07:27:00,76.4,71.6,29.77,West,273,1.0,1.0,85,0.00,,,0.00,0.00,VWS V14.01,2013-07-20 11:27:00,
2013-07-20 07:28:00,76.4,71.6,29.77,West,273,0.0,0.0,85,0.00,,,0.00,0.00,VWS V14.01,2013-07-20 11:28:00,
2013-07-20 07:30:00,76.5,71.7,29.77,West,273,0.0,2.0,85,0.00,,,0.00,0.00,VWS V14.01,2013-07-20 11:30:00,
2013-07-20 07:31:00,76.5,71.7,29.77,West,273,0.0,0.0,85,0.00,,,0.00,0.00,VWS V14.01,2013-07-20 11:31:00,
2013-07-20 07:32:00,76.5,71.7,29.77,West,273,0.0,0.0,85,0.00,,,0.00,0.00,VWS V14.01,2013-07-20 11:32:00,
2013-07-20 07:33:00,76.5,71.7,29.77,West,273,0.0,0.0,85,0.00,,,0.00,0.00,VWS V14.01,2013-07-20 11:33:00,
2013-07-20 07:35:00,76.5,71.7,29.77,West,273,2.0,2.0,85,0.00,,,0.00,0.00,VWS V14.01,2013-07-20 11:35:00,
2013-07-20 07:36:00,76.5,71.7,29.77,West,281,3.0,3.0,85,0.00,,,0.00,0.00,VWS V14.01,2013-07-20 11:36:00,
2013-07-20 07:37:00,76.5,71.7,29.77,West,281,1.0,3.0,85,0.00,,,0.00,0.00,VWS V14.01,2013-07-20 11:37:00,
2013-07-20 07:38:00,76.5,71.7,29.77,West,281,0.0,0.0,85,0.00,,,0.00,0.00,VWS V14.01,2013-07-20 11:38:00,
2013-07-20 07:41:00,76.5,71.7,29.78,NW,325,0.0,0.0,85,0.00,,,0.00,0.00,VWS V14.01,2013-07-20 11:41:00,
2013-07-20 07:42:00,76.5,71.7,29.78,NW,325,0.0,2.0,85,0.00,,,0.00,0.00,VWS V14.01,2013-07-20 11:42:00,
2013-07-20 07:43:00,76.5,71.7,29.78,NW,325,0.0,0.0,85,0.00,,,0.00,0.00,VWS V14.01,2013-07-20 11:43:00,
2013-07-20 07:46:00,76.5,71.7,29.78,NW,325,0.0,0.0,85,0.00,,,0.00,0.00,VWS V14.01,2013-07-20 11:46:00,
2013-07-20 07:47:00,76.6,71.8,29.78,NW,325,0.0,0.0,85,0.00,,,0.00,0.00,VWS V14.01,2013-07-20 11:47:00,
2013-07-20 07:49:00,76.6,71.8,29.78,NW,325,0.0,0.0,85,0.00,,,0.00,0.00,VWS V14.01,2013-07-20 11:49:00,
2013-07-20 07:51:00,76.6,71.8,29.78,NW,325,0.0,0.0,85,0.00,,,0.00,0.00,VWS V14.01,2013-07-20 11:51:00,
2013-07-20 07:52:00,76.6,71.8,29.78,WNW,289,0.0,2.0,85,0.00,,,0.00,0.00,VWS V14.01,2013-07-20 11:52:00,
2013-07-20 07:54:00,76.7,71.9,29.78,WNW,289,1.0,1.0,85,0.00,,,0.00,0.00,VWS V14.01,2013-07-20 11:54:00,
2013-07-20 07:56:00,76.6,71.8,29.78,WNW,289,0.0,0.0,85,0.00,,,0.00,0.00,VWS V14.01,2013-07-20 11:56:00,
2013-07-20 07:57:00,76.7,71.9,29.78,WNW,289,0.0,0.0,85,0.00,,,0.00,0.00,VWS V14.01,2013-07-20 11:57:00,
2013-07-20 07:59:00,76.8,71.9,29.78,WNW,289,1.0,1.0,85,0.00,,,0.00,0.00,VWS V14.01,2013-07-20 11:59:00,
2013-07-20 08:01:00,76.8,71.9,29.78,WNW,289,0.0,0.0,85,0.00,,,0.00,0.00,VWS V14.01,2013-07-20 12:01:00,
2013-07-20 08:02:00,76.8,71.6,29.78,WNW,289,4.0,4.0,84,0.00,,,0.00,0.00,VWS V14.01,2013-07-20 12:02:00,
2013-07-20 08:04:00,76.8,71.9,29.78,WNW,286,4.0,5.0,85,0.00,,,0.00,0.00,VWS V14.01,2013-07-20 12:04:00,
2013-07-20 08:06:00,76.9,72.1,29.78,WNW,286,1.0,1.0,85,0.00,,,0.00,0.00,VWS V14.01,2013-07-20 12:06:00,
2013-07-20 08:07:00,76.9,72.1,29.78,WNW,286,3.0,4.0,85,0.00,,,0.00,0.00,VWS V14.01,2013-07-20 12:07:00,
2013-07-20 08:09:00,76.9,71.7,29.78,WNW,286,0.0,0.0,84,0.00,,,0.00,0.00,VWS V14.01,2013-07-20 12:09:00,
2013-07-20 08:11:00,76.9,72.1,29.78,WNW,286,0.0,2.0,85,0.00,,,0.00,0.00,VWS V14.01,2013-07-20 12:11:00,
2013-07-20 08:12:00,76.9,72.1,29.78,WNW,286,0.0,1.0,85,0.00,,,0.00,0.00,VWS V14.01,2013-07-20 12:12:00,
2013-07-20 08:14:00,77.0,71.8,29.78,West,273,0.0,1.0,84,0.00,,,0.00,0.00,VWS V14.01,2013-07-20 12:14:00,
2013-07-20 08:16:00,77.0,72.2,29.78,West,273,1.0,1.0,85,0.00,,,0.00,0.00,VWS V14.01,2013-07-20 12:16:00,
2013-07-20 08:17:00,77.0,71.8,29.78,West,273,0.0,1.0,84,0.00,,,0.00,0.00,VWS V14.01,2013-07-20 12:17:00,
2013-07-20 08:19:00,77.1,72.2,29.78,West,273,0.0,0.0,85,0.00,,,0.00,0.00,VWS V14.01,2013-07-20 12:19:00,
2013-07-20 08:21:00,77.1,71.9,29.78,West,267,1.0,3.0,84,0.00,,,0.00,0.00,VWS V14.01,2013-07-20 12:21:00,
2013-07-20 08:22:00,77.2,72.0,29.78,West,265,1.0,1.0,84,0.00,,,0.00,0.00,VWS V14.01,2013-07-20 12:22:00,
2013-07-20 08:24:00,77.2,72.0,29.78,NW,317,4.0,4.0,84,0.00,,,0.00,0.00,VWS V14.01,2013-07-20 12:24:00,
2013-07-20 08:26:00,77.3,72.1,29.79,North,5,1.0,3.0,84,0.00,,,0.00,0.00,VWS V14.01,2013-07-20 12:26:00,
2013-07-20 08:27:00,77.3,72.1,29.79,North,5,0.0,1.0,84,0.00,,,0.00,0.00,VWS V14.01,2013-07-20 12:27:00,
2013-07-20 08:29:00,77.4,72.2,29.79,North,5,0.0,1.0,84,0.00,,,0.00,0.00,VWS V14.01,2013-07-20 12:29:00,
2013-07-20 08:31:00,77.4,72.2,29.79,North,355,0.0,0.0,84,0.00,,,0.00,0.00,VWS V14.01,2013-07-20 12:31:00,
2013-07-20 08:32:00,77.5,72.3,29.79,North,355,0.0,1.0,84,0.00,,,0.00,0.00,VWS V14.01,2013-07-20 12:32:00,
2013-07-20 08:34:00,77.5,72.3,29.79,North,355,0.0,0.0,84,0.00,,,0.00,0.00,VWS V14.01,2013-07-20 12:34:00,
2013-07-20 08:36:00,77.6,72.4,29.79,North,360,1.0,1.0,84,0.00,,,0.00,0.00,VWS V14.01,2013-07-20 12:36:00,
2013-07-20 08:37:00,77.6,72.4,29.79,North,360,0.0,1.0,84,0.00,,,0.00,0.00,VWS V14.01,2013-07-20 12:37:00,
2013-07-20 08:39:00,77.7,72.5,29.79,North,360,0.0,0.0,84,0.00,,,0.00,0.00,VWS V14.01,2013-07-20 12:39:00,
2013-07-20 08:41:00,77.7,72.5,29.79,North,360,0.0,0.0,84,0.00,,,0.00,0.00,VWS V14.01,2013-07-20 12:41:00,
2013-07-20 08:42:00,77.8,72.6,29.79,North,360,0.0,0.0,84,0.00,,,0.00,0.00,VWS V14.01,2013-07-20 12:42:00,
2013-07-20 08:44:00,77.8,72.2,29.79,NW,319,3.0,4.0,83,0.00,,,0.00,0.00,VWS V14.01,2013-07-20 12:44:00,
2013-07-20 08:46:00,77.8,72.2,29.79,NNW,342,4.0,5.0,83,0.00,,,0.00,0.00,VWS V14.01,2013-07-20 12:46:00,
2013-07-20 08:47:00,77.8,72.2,29.79,North,355,0.0,7.0,83,0.00,,,0.00,0.00,VWS V14.01,2013-07-20 12:47:00,
2013-07-20 08:48:00,77.8,72.2,29.79,North,355,0.0,1.0,83,0.00,,,0.00,0.00,VWS V14.01,2013-07-20 12:48:00,
2013-07-20 08:49:00,77.8,72.2,29.79,North,355,0.0,0.0,83,0.00,,,0.00,0.00,VWS V14.01,2013-07-20 12:49:00,
2013-07-20 08:51:00,77.8,72.2,29.78,North,355,2.0,2.0,83,0.00,,,0.00,0.00,VWS V14.01,2013-07-20 12:51:00,
2013-07-20 08:52:00,77.8,72.2,29.78,NNW,341,0.0,3.0,83,0.00,,,0.00,0.00,VWS V14.01,2013-07-20 12:52:00,
2013-07-20 08:53:00,77.8,72.6,29.78,NNW,341,0.0,2.0,84,0.00,,,0.00,0.00,VWS V14.01,2013-07-20 12:53:00,
2013-07-20 08:54:00,77.8,72.6,29.78,NNW,341,0.0,0.0,84,0.00,,,0.00,0.00,VWS V14.01,2013-07-20 12:54:00,
2013-07-20 08:57:00,77.8,72.9,29.79,NNW,341,1.0,1.0,85,0.00,,,0.00,0.00,VWS V14.01,2013-07-20 12:57:00,
2013-07-20 08:58:00,77.8,72.9,29.79,NNW,341,0.0,2.0,85,0.00,,,0.00,0.00,VWS V14.01,2013-07-20 12:58:00,
2013-07-20 09:00:00,77.8,72.9,29.79,NNW,341,0.0,0.0,85,0.00,,,0.00,0.00,VWS V14.01,2013-07-20 13:00:00,
2013-07-20 09:02:00,77.7,72.8,29.79,NNW,341,1.0,2.0,85,0.00,,,0.00,0.00,VWS V14.01,2013-07-20 13:02:00,
2013-07-20 09:03:00,77.7,72.8,29.79,NNW,342,0.0,4.0,85,0.00,,,0.00,0.00,VWS V14.01,2013-07-20 13:03:00,
2013-07-20 09:05:00,77.7,72.8,29.79,NNW,342,0.0,2.0,85,0.00,,,0.00,0.00,VWS V14.01,2013-07-20 13:05:00,
2013-07-20 09:07:00,77.6,72.7,29.79,NNW,344,0.0,3.0,85,0.00,,,0.00,0.00,VWS V14.01,2013-07-20 13:07:00,
2013-07-20 09:08:00,77.6,72.7,29.79,NNW,344,0.0,0.0,85,0.00,,,0.00,0.00,VWS V14.01,2013-07-20 13:08:00,
2013-07-20 09:10:00,77.6,73.1,29.79,NNW,344,0.0,0.0,86,0.00,,,0.00,0.00,VWS V14.01,2013-07-20 13:10:00,
2013-07-20 09:12:00,77.6,73.1,29.79,NNW,344,0.0,1.0,86,0.00,,,0.00,0.00,VWS V14.01,2013-07-20 13:12:00,
2013-07-20 09:13:00,77.7,73.2,29.80,NNW,344,1.0,1.0,86,0.00,,,0.00,0.00,VWS V14.01,2013-07-20 13:13:00,
2013-07-20 09:15:00,77.6,73.1,29.80,NNW,341,0.0,0.0,86,0.00,,,0.00,0.00,VWS V14.01,2013-07-20 13:15:00,
2013-07-20 09:17:00,77.6,73.1,29.80,NNW,341,1.0,1.0,86,0.00,,,0.00,0.00,VWS V14.01,2013-07-20 13:17:00,
2013-07-20 09:18:00,77.6,73.1,29.80,NNW,333,4.0,4.0,86,0.00,,,0.00,0.00,VWS V14.01,2013-07-20 13:18:00,
2013-07-20 09:20:00,77.5,73.3,29.80,WSW,254,5.0,6.0,87,0.00,,,0.00,0.00,VWS V14.01,2013-07-20 13:20:00,
2013-07-20 09:22:00,77.4,73.2,29.79,WSW,254,1.0,1.0,87,0.00,,,0.00,0.00,VWS V14.01,2013-07-20 13:22:00,
2013-07-20 09:23:00,77.3,73.1,29.79,West,269,0.0,3.0,87,0.00,,,0.00,0.00,VWS V14.01,2013-07-20 13:23:00,
2013-07-20 09:25:00,77.1,72.9,29.79,West,269,0.0,4.0,87,0.00,,,0.00,0.00,VWS V14.01,2013-07-20 13:25:00,
2013-07-20 09:27:00,77.0,73.2,29.80,West,269,0.0,2.0,88,0.00,,,0.00,0.00,VWS V14.01,2013-07-20 13:27:00,
2013-07-20 09:28:00,76.9,73.1,29.80,West,269,0.0,2.0,88,0.00,,,0.00,0.00,VWS V14.01,2013-07-20 13:28:00,
2013-07-20 09:30:00,76.8,73.3,29.80,West,272,0.0,1.0,89,0.00,,,0.00,0.00,VWS V14.01,2013-07-20 13:30:00,
2013-07-20 09:32:00,76.7,73.2,29.80,West,272,0.0,1.0,89,0.00,,,0.00,0.00,VWS V14.01,2013-07-20 13:32:00,
2013-07-20 09:33:00,76.7,73.6,29.81,West,272,0.0,1.0,90,0.00,,,0.00,0.00,VWS V14.01,2013-07-20 13:33:00,
2013-07-20 09:35:00,76.6,73.4,29.81,West,272,0.0,1.0,90,0.00,,,0.00,0.00,VWS V14.01,2013-07-20 13:35:00,
2013-07-20 09:37:00,76.6,73.4,29.81,West,273,0.0,1.0,90,0.00,,,0.00,0.00,VWS V14.01,2013-07-20 13:37:00,
2013-07-20 09:38:00,76.6,73.4,29.81,NNW,348,5.0,6.0,90,0.00,,,0.00,0.00,VWS V14.01,2013-07-20 13:38:00,
2013-07-20 09:40:00,76.4,73.2,29.81,North,349,0.0,1.0,90,0.00,,,0.00,0.00,VWS V14.01,2013-07-20 13:40:00,
2013-07-20 09:42:00,76.4,73.6,29.81,SSW,204,3.0,3.0,91,0.00,,,0.00,0.00,VWS V14.01,2013-07-20 13:42:00,
2013-07-20 09:43:00,76.4,73.6,29.81,WSW,239,1.0,3.0,91,0.00,,,0.00,0.00,VWS V14.01,2013-07-20 13:43:00,
2013-07-20 09:45:00,76.3,73.5,29.81,West,277,0.0,1.0,91,0.00,,,0.00,0.00,VWS V14.01,2013-07-20 13:45:00,
2013-07-20 09:47:00,76.2,73.4,29.82,WNW,296,0.0,0.0,91,0.00,,,0.00,0.00,VWS V14.01,2013-07-20 13:47:00,
2013-07-20 09:48:00,76.2,73.4,29.82,WNW,296,0.0,1.0,91,0.00,,,0.00,0.00,VWS V14.01,2013-07-20 13:48:00,
2013-07-20 09:50:00,76.1,73.3,29.81,WNW,292,3.0,6.0,91,0.00,,,0.00,0.00,VWS V14.01,2013-07-20 13:50:00,
2013-07-20 09:52:00,75.9,73.1,29.81,West,281,0.0,5.0,91,0.00,,,0.00,0.00,VWS V14.01,2013-07-20 13:52:00,
2013-07-20 09:53:00,75.9,73.1,29.81,WNW,282,0.0,1.0,91,0.00,,,0.00,0.00,VWS V14.01,2013-07-20 13:53:00,
2013-07-20 09:55:00,75.8,73.0,29.82,West,267,0.0,1.0,91,0.00,,,0.00,0.00,VWS V14.01,2013-07-20 13:55:00,
2013-07-20 09:57:00,75.7,72.9,29.82,SW,225,1.0,5.0,91,0.00,,,0.00,0.00,VWS V14.01,2013-07-20 13:57:00,
2013-07-20 09:58:00,75.7,73.2,29.82,WSW,255,7.0,12.0,92,0.00,,,0.00,0.00,VWS V14.01,2013-07-20 13:58:00,
2013-07-20 10:00:00,75.4,72.3,29.82,North,360,2.0,5.0,90,0.00,,,0.00,0.00,VWS V14.01,2013-07-20 14:00:00,
2013-07-20 10:02:00,75.1,71.6,29.82,NNW,344,2.0,5.0,89,0.00,,,0.00,0.00,VWS V14.01,2013-07-20 14:02:00,
2013-07-20 10:03:00,75.0,71.5,29.82,North,360,11.0,11.0,89,0.00,,,0.00,0.00,VWS V14.01,2013-07-20 14:03:00,
2013-07-20 10:06:00,74.7,71.2,29.82,North,5,1.0,5.0,89,0.00,,,0.00,0.00,VWS V14.01,2013-07-20 14:06:00,
2013-07-20 10:07:00,74.6,71.2,29.82,North,5,0.0,0.0,89,0.00,,,0.00,0.00,VWS V14.01,2013-07-20 14:07:00,
2013-07-20 10:08:00,74.4,70.9,29.82,North,360,0.0,0.0,89,0.00,,,0.00,0.00,VWS V14.01,2013-07-20 14:08:00,
2013-07-20 10:09:00,74.4,70.9,29.82,North,360,0.0,3.0,89,0.00,,,0.00,0.00,VWS V14.01,2013-07-20 14:09:00,
2013-07-20 10:11:00,74.2,70.8,29.82,North,360,0.0,1.0,89,0.00,,,0.00,0.00,VWS V14.01,2013-07-20 14:11:00,
2013-07-20 10:12:00,74.0,70.6,29.82,NW,322,1.0,7.0,89,0.00,,,0.00,0.00,VWS V14.01,2013-07-20 14:12:00,
2013-07-20 10:13:00,73.9,70.5,29.82,NW,322,0.0,3.0,89,0.00,,,0.00,0.00,VWS V14.01,2013-07-20 14:13:00,
2013-07-20 10:14:00,73.9,70.5,29.82,NW,322,0.0,0.0,89,0.00,,,0.00,0.00,VWS V14.01,2013-07-20 14:14:00,
2013-07-20 10:16:00,73.7,70.3,29.82,North,360,1.0,6.0,89,0.00,,,0.00,0.00,VWS V14.01,2013-07-20 14:16:00,
2013-07-20 10:17:00,73.6,70.2,29.82,North,360,0.0,0.0,89,0.00,,,0.00,0.00,VWS V14.01,2013-07-20 14:17:00,
2013-07-20 10:18:00,73.6,70.2,29.82,North,360,0.0,0.0,89,0.00,,,0.00,0.00,VWS V14.01,2013-07-20 14:18:00,
2013-07-20 10:19:00,73.6,70.2,29.82,North,360,3.0,3.0,89,0.00,,,0.00,0.00,VWS V14.01,2013-07-20 14:19:00,
2013-07-20 10:21:00,73.5,70.4,29.82,North,355,0.0,2.0,90,0.00,,,0.00,0.00,VWS V14.01,2013-07-20 14:21:00,
2013-07-20 10:22:00,73.4,70.3,29.82,North,355,0.0,0.0,90,0.00,,,0.00,0.00,VWS V14.01,2013-07-20 14:22:00,
2013-07-20 10:23:00,73.4,70.3,29.82,North,355,1.0,1.0,90,0.00,,,0.00,0.00,VWS V14.01,2013-07-20 14:23:00,
2013-07-20 10:24:00,73.4,70.3,29.82,North,355,2.0,2.0,90,0.00,,,0.00,0.00,VWS V14.01,2013-07-20 14:24:00,
2013-07-20 10:26:00,73.3,70.2,29.82,North,355,2.0,2.0,90,0.00,,,0.00,0.00,VWS V14.01,2013-07-20 14:26:00,
2013-07-20 10:27:00,73.2,70.4,29.82,North,355,0.0,0.0,91,0.00,,,0.00,0.00,VWS V14.01,2013-07-20 14:27:00,
2013-07-20 10:28:00,73.1,70.3,29.82,North,355,0.0,2.0,91,0.00,,,0.00,0.00,VWS V14.01,2013-07-20 14:28:00,
2013-07-20 10:29:00,73.1,70.3,29.82,North,355,0.0,1.0,91,0.00,,,0.00,0.00,VWS V14.01,2013-07-20 14:29:00,
2013-07-20 10:31:00,73.0,70.2,29.82,North,355,0.0,1.0,91,0.00,,,0.00,0.00,VWS V14.01,2013-07-20 14:31:00,
2013-07-20 10:32:00,73.0,70.2,29.82,North,355,1.0,1.0,91,0.00,,,0.00,0.00,VWS V14.01,2013-07-20 14:32:00,
2013-07-20 10:33:00,73.0,70.2,29.82,North,355,0.0,3.0,91,0.00,,,0.00,0.00,VWS V14.01,2013-07-20 14:33:00,
2013-07-20 10:34:00,73.0,70.2,29.82,North,355,0.0,1.0,91,0.00,,,0.00,0.00,VWS V14.01,2013-07-20 14:34:00,
2013-07-20 10:36:00,72.8,70.3,29.82,North,355,0.0,1.0,92,0.00,,,0.00,0.00,VWS V14.01,2013-07-20 14:36:00,
2013-07-20 10:37:00,72.8,70.3,29.83,NW,325,3.0,3.0,92,0.00,,,0.00,0.00,VWS V14.01,2013-07-20 14:37:00,
2013-07-20 10:38:00,72.8,70.3,29.82,NNW,329,0.0,0.0,92,0.00,,,0.00,0.00,VWS V14.01,2013-07-20 14:38:00,
2013-07-20 10:39:00,72.8,70.3,29.82,NNW,329,1.0,1.0,92,0.00,,,0.00,0.00,VWS V14.01,2013-07-20 14:39:00,
2013-07-20 10:41:00,72.7,70.2,29.82,NNW,329,0.0,0.0,92,0.00,,,0.00,0.00,VWS V14.01,2013-07-20 14:41:00,
2013-07-20 10:42:00,72.7,70.2,29.82,NNW,329,0.0,0.0,92,0.00,,,0.00,0.00,VWS V14.01,2013-07-20 14:42:00,
2013-07-20 10:43:00,72.7,70.2,29.82,NNW,329,0.0,0.0,92,0.00,,,0.00,0.00,VWS V14.01,2013-07-20 14:43:00,
2013-07-20 10:44:00,72.7,70.6,29.82,NNW,329,1.0,1.0,93,0.00,,,0.00,0.00,VWS V14.01,2013-07-20 14:44:00,
2013-07-20 10:46:00,72.7,70.6,29.83,NNW,329,0.0,5.0,93,0.00,,,0.00,0.00,VWS V14.01,2013-07-20 14:46:00,
2013-07-20 10:47:00,72.6,70.5,29.82,NNW,329,2.0,2.0,93,0.00,,,0.00,0.00,VWS V14.01,2013-07-20 14:47:00,
2013-07-20 10:48:00,72.6,70.5,29.82,NNW,329,0.0,1.0,93,0.00,,,0.00,0.00,VWS V14.01,2013-07-20 14:48:00,
2013-07-20 10:49:00,72.6,70.5,29.82,NNW,329,0.0,1.0,93,0.00,,,0.00,0.00,VWS V14.01,2013-07-20 14:49:00,
2013-07-20 10:51:00,72.6,70.5,29.82,NNW,329,0.0,0.0,93,0.00,,,0.00,0.00,VWS V14.01,2013-07-20 14:51:00,
2013-07-20 10:52:00,72.6,70.5,29.82,NNW,329,0.0,0.0,93,0.00,,,0.00,0.00,VWS V14.01,2013-07-20 14:52:00,
2013-07-20 10:53:00,72.7,70.9,29.82,NNW,329,0.0,0.0,94,0.00,,,0.00,0.00,VWS V14.01,2013-07-20 14:53:00,
2013-07-20 10:54:00,72.7,70.9,29.82,NNW,329,0.0,0.0,94,0.00,,,0.00,0.00,VWS V14.01,2013-07-20 14:54:00,
2013-07-20 10:56:00,72.8,71.0,29.82,NNW,329,0.0,1.0,94,0.00,,,0.00,0.00,VWS V14.01,2013-07-20 14:56:00,
2013-07-20 10:57:00,72.8,71.0,29.82,NW,318,0.0,0.0,94,0.00,,,0.00,0.00,VWS V14.01,2013-07-20 14:57:00,
2013-07-20 10:58:00,72.8,71.0,29.82,NW,318,0.0,0.0,94,0.00,,,0.00,0.00,VWS V14.01,2013-07-20 14:58:00,
2013-07-20 10:59:00,72.8,71.0,29.82,NW,318,1.0,1.0,94,0.00,,,0.00,0.00,VWS V14.01,2013-07-20 14:59:00,
2013-07-20 11:01:00,72.8,71.0,29.82,NW,318,0.0,2.0,94,0.00,,,0.00,0.00,VWS V14.01,2013-07-20 15:01:00,
2013-07-20 11:02:00,72.9,71.1,29.83,NW,318,1.0,1.0,94,0.00,,,0.00,0.00,VWS V14.01,2013-07-20 15:02:00,
2013-07-20 11:03:00,72.9,71.1,29.83,NW,318,0.0,1.0,94,0.00,,,0.00,0.00,VWS V14.01,2013-07-20 15:03:00,
2013-07-20 11:04:00,72.9,71.1,29.83,NW,318,3.0,4.0,94,0.00,,,0.00,0.00,VWS V14.01,2013-07-20 15:04:00,
2013-07-20 11:06:00,73.0,71.2,29.83,NW,318,0.0,0.0,94,0.00,,,0.00,0.00,VWS V14.01,2013-07-20 15:06:00,
2013-07-20 11:07:00,73.0,71.2,29.83,NW,322,0.0,3.0,94,0.00,,,0.00,0.00,VWS V14.01,2013-07-20 15:07:00,
2013-07-20 11:08:00,73.0,71.2,29.83,NW,322,0.0,0.0,94,0.00,,,0.00,0.00,VWS V14.01,2013-07-20 15:08:00,
2013-07-20 11:09:00,73.0,71.2,29.83,NW,322,0.0,0.0,94,0.00,,,0.00,0.00,VWS V14.01,2013-07-20 15:09:00,
2013-07-20 11:12:00,73.0,71.2,29.83,NW,322,0.0,1.0,94,0.00,,,0.00,0.00,VWS V14.01,2013-07-20 15:12:00,
2013-07-20 11:13:00,73.0,71.2,29.83,NW,322,0.0,0.0,94,0.00,,,0.00,0.00,VWS V14.01,2013-07-20 15:13:00,
2013-07-20 11:14:00,73.0,71.2,29.83,NW,322,1.0,1.0,94,0.00,,,0.00,0.00,VWS V14.01,2013-07-20 15:14:00,
2013-07-20 11:17:00,73.1,71.3,29.82,NW,322,0.0,0.0,94,0.00,,,0.00,0.00,VWS V14.01,2013-07-20 15:17:00,
2013-07-20 11:18:00,73.1,71.3,29.82,NW,322,0.0,3.0,94,0.00,,,0.00,0.00,VWS V14.01,2013-07-20 15:18:00,
2013-07-20 11:19:00,73.1,71.3,29.82,NW,322,0.0,2.0,94,0.00,,,0.00,0.00,VWS V14.01,2013-07-20 15:19:00,
2013-07-20 11:20:00,73.1,71.0,29.82,NW,322,0.0,0.0,93,0.00,,,0.00,0.00,VWS V14.01,2013-07-20 15:20:00,
2013-07-20 11:22:00,73.2,71.4,29.82,NW,322,0.0,0.0,94,0.00,,,0.00,0.00,VWS V14.01,2013-07-20 15:22:00,
2013-07-20 11:23:00,73.3,71.2,29.82,NW,322,0.0,1.0,93,0.00,,,0.00,0.00,VWS V14.01,2013-07-20 15:23:00,
2013-07-20 11:24:00,73.3,71.2,29.82,NW,322,0.0,1.0,93,0.00,,,0.00,0.00,VWS V14.01,2013-07-20 15:24:00,
2013-07-20 11:25:00,73.3,71.2,29.82,NW,322,0.0,0.0,93,0.00,,,0.00,0.00,VWS V14.01,2013-07-20 15:25:00,
2013-07-20 11:27:00,73.4,70.9,29.82,NW,322,0.0,0.0,92,0.00,,,0.00,0.00,VWS V14.01,2013-07-20 15:27:00,
2013-07-20 11:28:00,73.4,70.9,29.82,NW,322,0.0,0.0,92,0.00,,,0.00,0.00,VWS V14.01,2013-07-20 15:28:00,
2013-07-20 11:29:00,73.5,71.0,29.82,NW,322,0.0,0.0,92,0.00,,,0.00,0.00,VWS V14.01,2013-07-20 15:29:00,
2013-07-20 11:30:00,73.5,71.0,29.82,NW,322,0.0,0.0,92,0.00,,,0.00,0.00,VWS V14.01,2013-07-20 15:30:00,
2013-07-20 11:32:00,73.5,70.7,29.82,NW,322,0.0,1.0,91,0.00,,,0.00,0.00,VWS V14.01,2013-07-20 15:32:00,
2013-07-20 11:33:00,73.6,70.8,29.82,NW,322,0.0,3.0,91,0.00,,,0.00,0.00,VWS V14.01,2013-07-20 15:33:00,
2013-07-20 11:34:00,73.6,70.8,29.82,NW,322,0.0,0.0,91,0.00,,,0.00,0.00,VWS V14.01,2013-07-20 15:34:00,
2013-07-20 11:35:00,73.7,71.2,29.82,NW,322,0.0,0.0,92,0.00,,,0.00,0.00,VWS V14.01,2013-07-20 15:35:00,
2013-07-20 11:37:00,73.9,71.4,29.82,NW,322,1.0,1.0,92,0.00,,,0.00,0.00,VWS V14.01,2013-07-20 15:37:00,
2013-07-20 11:38:00,73.9,71.1,29.82,NW,322,0.0,1.0,91,0.00,,,0.00,0.00,VWS V14.01,2013-07-20 15:38:00,
2013-07-20 11:39:00,73.9,70.8,29.82,NW,322,0.0,1.0,90,0.00,,,0.00,0.00,VWS V14.01,2013-07-20 15:39:00,
2013-07-20 11:40:00,74.0,70.9,29.82,WNW,302,0.0,4.0,90,0.00,,,0.00,0.00,VWS V14.01,2013-07-20 15:40:00,
2013-07-20 11:42:00,74.0,70.6,29.82,WNW,298,4.0,5.0,89,0.00,,,0.00,0.00,VWS V14.01,2013-07-20 15:42:00,
2013-07-20 11:43:00,74.1,71.0,29.82,WNW,299,0.0,2.0,90,0.00,,,0.00,0.00,VWS V14.01,2013-07-20 15:43:00,
2013-07-20 11:44:00,74.2,71.1,29.82,WNW,299,1.0,1.0,90,0.00,,,0.00,0.00,VWS V14.01,2013-07-20 15:44:00,
2013-07-20 11:45:00,74.3,71.2,29.82,WNW,299,0.0,0.0,90,0.00,,,0.00,0.00,VWS V14.01,2013-07-20 15:45:00,
2013-07-20 11:47:00,74.4,71.6,29.82,WNW,299,1.0,1.0,91,0.00,,,0.00,0.00,VWS V14.01,2013-07-20 15:47:00,
2013-07-20 11:48:00,74.5,71.4,29.82,WNW,299,2.0,3.0,90,0.00,,,0.00,0.00,VWS V14.01,2013-07-20 15:48:00,
2013-07-20 11:49:00,74.5,71.1,29.82,WNW,299,0.0,3.0,89,0.00,,,0.00,0.00,VWS V14.01,2013-07-20 15:49:00,
2013-07-20 11:50:00,74.5,71.1,29.82,WNW,299,0.0,2.0,89,0.00,,,0.00,0.00,VWS V14.01,2013-07-20 15:50:00,
2013-07-20 11:52:00,74.7,71.2,29.82,NW,317,1.0,3.0,89,0.00,,,0.00,0.00,VWS V14.01,2013-07-20 15:52:00,
2013-07-20 11:53:00,74.7,70.9,29.82,NNW,336,2.0,5.0,88,0.00,,,0.00,0.00,VWS V14.01,2013-07-20 15:53:00,
2013-07-20 11:54:00,74.7,70.9,29.82,NNW,336,0.0,5.0,88,0.00,,,0.00,0.00,VWS V14.01,2013-07-20 15:54:00,
2013-07-20 11:55:00,74.8,71.0,29.82,NNW,336,0.0,1.0,88,0.00,,,0.00,0.00,VWS V14.01,2013-07-20 15:55:00,
2013-07-20 11:57:00,75.0,71.5,29.82,NNW,336,0.0,1.0,89,0.00,,,0.00,0.00,VWS V14.01,2013-07-20 15:57:00,
2013-07-20 11:58:00,75.1,71.6,29.82,WNW,302,1.0,1.0,89,0.00,,,0.00,0.00,VWS V14.01,2013-07-20 15:58:00,
2013-07-20 11:59:00,75.2,71.4,29.82,West,269,1.0,3.0,88,0.00,,,0.00,0.00,VWS V14.01,2013-07-20 15:59:00,
2013-07-20 12:00:00,75.3,71.5,29.82,NW,312,3.0,3.0,88,0.00,,,0.00,0.00,VWS V14.01,2013-07-20 16:00:00,
2013-07-20 12:02:00,75.6,71.8,29.82,NW,319,0.0,0.0,88,0.00,,,0.00,0.00,VWS V14.01,2013-07-20 16:02:00,
2013-07-20 12:04:00,75.7,71.9,29.82,NW,319,0.0,1.0,88,0.00,,,0.00,0.00,VWS V14.01,2013-07-20 16:04:00,
2013-07-20 12:05:00,75.8,72.0,29.82,NW,323,2.0,5.0,88,0.00,,,0.00,0.00,VWS V14.01,2013-07-20 16:05:00,
2013-07-20 12:07:00,76.0,71.5,29.82,North,355,0.0,1.0,86,0.00,,,0.00,0.00,VWS V14.01,2013-07-20 16:07:00,
2013-07-20 12:09:00,76.0,71.5,29.82,North,355,1.0,1.0,86,0.00,,,0.00,0.00,VWS V14.01,2013-07-20 16:09:00,
2013-07-20 12:10:00,76.1,71.9,29.82,North,350,0.0,4.0,87,0.00,,,0.00,0.00,VWS V14.01,2013-07-20 16:10:00,
2013-07-20 12:12:00,76.3,72.2,29.82,NNW,330,0.0,1.0,87,0.00,,,0.00,0.00,VWS V14.01,2013-07-20 16:12:00,
2013-07-20 12:14:00,76.4,72.2,29.82,NNW,330,2.0,2.0,87,0.00,,,0.00,0.00,VWS V14.01,2013-07-20 16:14:00,
2013-07-20 12:15:00,76.5,72.0,29.82,NNW,330,2.0,2.0,86,0.00,,,0.00,0.00,VWS V14.01,2013-07-20 16:15:00,
2013-07-20 12:17:00,76.5,72.0,29.82,West,261,3.0,4.0,86,0.00,,,0.00,0.00,VWS V14.01,2013-07-20 16:17:00,
2013-07-20 12:19:00,76.5,71.7,29.82,West,261,3.0,3.0,85,0.00,,,0.00,0.00,VWS V14.01,2013-07-20 16:19:00,
2013-07-20 12:20:00,76.5,72.0,29.82,West,261,0.0,2.0,86,0.00,,,0.00,0.00,VWS V14.01,2013-07-20 16:20:00,
2013-07-20 12:22:00,76.5,72.0,29.83,West,263,0.0,1.0,86,0.00,,,0.00,0.00,VWS V14.01,2013-07-20 16:22:00,
2013-07-20 12:24:00,76.5,72.0,29.82,West,262,5.0,6.0,86,0.00,,,0.00,0.00,VWS V14.01,2013-07-20 16:24:00,
2013-07-20 12:25:00,76.5,71.7,29.82,West,273,2.0,5.0,85,0.00,,,0.00,0.00,VWS V14.01,2013-07-20 16:25:00,
2013-07-20 12:28:00,76.4,71.9,29.83,WNW,282,1.0,1.0,86,0.00,,,0.00,0.00,VWS V14.01,2013-07-20 16:28:00,
2013-07-20 12:29:00,76.3,71.8,29.83,WNW,282,1.0,3.0,86,0.00,,,0.00,0.00,VWS V14.01,2013-07-20 16:29:00,
2013-07-20 12:30:00,76.3,71.8,29.82,WNW,282,0.0,1.0,86,0.00,,,0.00,0.00,VWS V14.01,2013-07-20 16:30:00,
2013-07-20 12:33:00,76.4,71.9,29.83,WNW,300,0.0,4.0,86,0.00,,,0.00,0.00,VWS V14.01,2013-07-20 16:33:00,
2013-07-20 12:34:00,76.5,72.0,29.83,WNW,300,1.0,2.0,86,0.00,,,0.00,0.00,VWS V14.01,2013-07-20 16:34:00,
2013-07-20 12:35:00,76.5,72.0,29.83,WNW,300,1.0,1.0,86,0.00,,,0.00,0.00,VWS V14.01,2013-07-20 16:35:00,
2013-07-20 12:38:00,76.7,72.5,29.83,WNW,300,1.0,1.0,87,0.00,,,0.00,0.00,VWS V14.01,2013-07-20 16:38:00,
2013-07-20 12:39:00,76.7,72.2,29.83,WNW,300,0.0,0.0,86,0.00,,,0.00,0.00,VWS V14.01,2013-07-20 16:39:00,
2013-07-20 12:40:00,76.7,71.9,29.83,WNW,301,2.0,3.0,85,0.00,,,0.00,0.00,VWS V14.01,2013-07-20 16:40:00,
2013-07-20 12:43:00,76.8,71.6,29.83,NW,304,1.0,2.0,84,0.00,,,0.00,0.00,VWS V14.01,2013-07-20 16:43:00,
2013-07-20 12:44:00,76.8,71.9,29.83,WNW,290,3.0,3.0,85,0.00,,,0.00,0.00,VWS V14.01,2013-07-20 16:44:00,
2013-07-20 12:45:00,76.8,71.9,29.83,WNW,290,1.0,4.0,85,0.00,,,0.00,0.00,VWS V14.01,2013-07-20 16:45:00,
2013-07-20 12:46:00,76.8,71.6,29.83,WNW,290,1.0,1.0,84,0.00,,,0.00,0.00,VWS V14.01,2013-07-20 16:46:00,
2013-07-20 12:48:00,76.8,71.9,29.83,WNW,290,0.0,4.0,85,0.00,,,0.00,0.00,VWS V14.01,2013-07-20 16:48:00,
2013-07-20 12:50:00,76.8,71.9,29.83,WNW,290,0.0,1.0,85,0.00,,,0.00,0.00,VWS V14.01,2013-07-20 16:50:00,
2013-07-20 12:51:00,76.8,71.6,29.83,WNW,290,0.0,0.0,84,0.00,,,0.00,0.00,VWS V14.01,2013-07-20 16:51:00,
2013-07-20 12:53:00,76.9,71.7,29.83,WNW,294,2.0,4.0,84,0.00,,,0.00,0.00,VWS V14.01,2013-07-20 16:53:00,
2013-07-20 12:55:00,76.8,71.6,29.83,WNW,294,1.0,1.0,84,0.00,,,0.00,0.00,VWS V14.01,2013-07-20 16:55:00,
2013-07-20 12:56:00,76.9,72.1,29.83,WNW,294,0.0,3.0,85,0.00,,,0.00,0.00,VWS V14.01,2013-07-20 16:56:00,
2013-07-20 12:58:00,76.9,72.1,29.83,WNW,300,0.0,2.0,85,0.00,,,0.00,0.00,VWS V14.01,2013-07-20 16:58:00,
2013-07-20 13:00:00,76.9,72.1,29.83,WNW,300,0.0,1.0,85,0.00,,,0.00,0.00,VWS V14.01,2013-07-20 17:00:00,
2013-07-20 13:01:00,76.9,72.1,29.83,WNW,300,3.0,4.0,85,0.00,,,0.00,0.00,VWS V14.01,2013-07-20 17:01:00,
2013-07-20 13:03:00,77.0,72.2,29.83,WNW,300,0.0,2.0,85,0.00,,,0.00,0.00,VWS V14.01,2013-07-20 17:03:00,
2013-07-20 13:05:00,77.1,72.6,29.83,WNW,300,0.0,1.0,86,0.00,,,0.00,0.00,VWS V14.01,2013-07-20 17:05:00,
2013-07-20 13:06:00,77.2,72.3,29.83,WNW,301,3.0,3.0,85,0.00,,,0.00,0.00,VWS V14.01,2013-07-20 17:06:00,
2013-07-20 13:08:00,77.3,72.1,29.83,NW,304,0.0,5.0,84,0.00,,,0.00,0.00,VWS V14.01,2013-07-20 17:08:00,
2013-07-20 13:10:00,77.3,72.1,29.83,WNW,293,1.0,6.0,84,0.00,,,0.00,0.00,VWS V14.01,2013-07-20 17:10:00,
2013-07-20 13:11:00,77.4,72.2,29.83,WNW,293,1.0,1.0,84,0.00,,,0.00,0.00,VWS V14.01,2013-07-20 17:11:00,
2013-07-20 13:13:00,77.5,72.3,29.83,WNW,285,0.0,1.0,84,0.00,,,0.00,0.00,VWS V14.01,2013-07-20 17:13:00,
2013-07-20 13:15:00,77.6,72.7,29.83,WNW,286,3.0,3.0,85,0.00,,,0.00,0.00,VWS V14.01,2013-07-20 17:15:00,
2013-07-20 13:16:00,77.7,72.5,29.82,WNW,282,0.0,6.0,84,0.00,,,0.00,0.00,VWS V14.01,2013-07-20 17:16:00,
2013-07-20 13:18:00,77.8,72.6,29.83,West,275,2.0,3.0,84,0.00,,,0.00,0.00,VWS V14.01,2013-07-20 17:18:00,
2013-07-20 13:20:00,77.9,72.3,29.83,West,276,1.0,2.0,83,0.00,,,0.00,0.00,VWS V14.01,2013-07-20 17:20:00,
2013-07-20 13:21:00,77.9,72.3,29.83,NNW,345,0.0,6.0,83,0.00,,,0.00,0.00,VWS V14.01,2013-07-20 17:21:00,
2013-07-20 13:23:00,78.0,72.4,29.83,North,351,0.0,1.0,83,0.00,,,0.00,0.00,VWS V14.01,2013-07-20 17:23:00,
2013-07-20 13:25:00,78.2,72.6,29.82,North,355,3.0,4.0,83,0.00,,,0.00,0.00,VWS V14.01,2013-07-20 17:25:00,
2013-07-20 13:26:00,78.3,72.4,29.82,North,355,1.0,4.0,82,0.00,,,0.00,0.00,VWS V14.01,2013-07-20 17:26:00,
2013-07-20 13:28:00,78.4,72.4,29.82,North,355,3.0,3.0,82,0.00,,,0.00,0.00,VWS V14.01,2013-07-20 17:28:00,
2013-07-20 13:30:00,78.4,72.4,29.82,North,355,0.0,2.0,82,0.00,,,0.00,0.00,VWS V14.01,2013-07-20 17:30:00,
2013-07-20 13:31:00,78.4,72.4,29.82,North,355,0.0,4.0,82,0.00,,,0.00,0.00,VWS V14.01,2013-07-20 17:31:00,
2013-07-20 13:33:00,78.5,72.6,29.82,North,351,1.0,4.0,82,0.00,,,0.00,0.00,VWS V14.01,2013-07-20 17:33:00,
2013-07-20 13:35:00,78.5,72.9,29.82,North,351,0.0,1.0,83,0.00,,,0.00,0.00,VWS V14.01,2013-07-20 17:35:00,
2013-07-20 13:36:00,78.5,72.9,29.82,North,351,0.0,0.0,83,0.00,,,0.00,0.00,VWS V14.01,2013-07-20 17:36:00,
2013-07-20 13:38:00,78.7,73.5,29.82,North,351,0.0,1.0,84,0.00,,,0.00,0.00,VWS V14.01,2013-07-20 17:38:00,
2013-07-20 13:40:00,78.8,73.2,29.82,North,351,2.0,2.0,83,0.00,,,0.00,0.00,VWS V14.01,2013-07-20 17:40:00,
2013-07-20 13:41:00,78.9,73.3,29.82,NNW,336,4.0,4.0,83,0.00,,,0.00,0.00,VWS V14.01,2013-07-20 17:41:00,
2013-07-20 13:42:00,78.9,72.9,29.82,NNW,336,0.0,1.0,82,0.00,,,0.00,0.00,VWS V14.01,2013-07-20 17:42:00,
2013-07-20 13:43:00,79.0,73.0,29.82,NNW,336,1.0,1.0,82,0.00,,,0.00,0.00,VWS V14.01,2013-07-20 17:43:00,
2013-07-20 13:45:00,79.0,73.0,29.82,NNW,338,4.0,5.0,82,0.00,,,0.00,0.00,VWS V14.01,2013-07-20 17:45:00,
2013-07-20 13:46:00,79.0,72.7,29.82,NNW,338,1.0,5.0,81,0.00,,,0.00,0.00,VWS V14.01,2013-07-20 17:46:00,
2013-07-20 13:47:00,79.0,73.0,29.82,NNW,338,2.0,2.0,82,0.00,,,0.00,0.00,VWS V14.01,2013-07-20 17:47:00,
2013-07-20 13:49:00,79.0,73.4,29.82,NNW,338,0.0,0.0,83,0.00,,,0.00,0.00,VWS V14.01,2013-07-20 17:49:00,
2013-07-20 13:50:00,79.0,73.4,29.82,NNW,338,0.0,1.0,83,0.00,,,0.00,0.00,VWS V14.01,2013-07-20 17:50:00,
2013-07-20 13:51:00,79.0,73.4,29.82,NNW,338,0.0,1.0,83,0.00,,,0.00,0.00,VWS V14.01,2013-07-20 17:51:00,
2013-07-20 13:52:00,79.0,73.4,29.82,WNW,303,1.0,2.0,83,0.00,,,0.00,0.00,VWS V14.01,2013-07-20 17:52:00,
2013-07-20 13:54:00,79.0,73.0,29.82,WNW,291,2.0,2.0,82,0.00,,,0.00,0.00,VWS V14.01,2013-07-20 17:54:00,
2013-07-20 13:55:00,78.9,73.3,29.82,WNW,291,1.0,1.0,83,0.00,,,0.00,0.00,VWS V14.01,2013-07-20 17:55:00,
2013-07-20 13:56:00,78.9,73.3,29.82,WNW,291,0.0,3.0,83,0.00,,,0.00,0.00,VWS V14.01,2013-07-20 17:56:00,
2013-07-20 13:57:00,78.9,73.3,29.82,WNW,291,0.0,2.0,83,0.00,,,0.00,0.00,VWS V14.01,2013-07-20 17:57:00,
2013-07-20 13:59:00,78.8,73.2,29.83,West,265,1.0,3.0,83,0.00,,,0.00,0.00,VWS V14.01,2013-07-20 17:59:00,
2013-07-20 14:00:00,78.8,72.8,29.82,West,281,3.0,3.0,82,0.00,,,0.00,0.00,VWS V14.01,2013-07-20 18:00:00,
2013-07-20 14:01:00,78.8,72.8,29.82,West,281,0.0,3.0,82,0.00,,,0.00,0.00,VWS V14.01,2013-07-20 18:01:00,
2013-07-20 14:02:00,78.7,73.1,29.82,West,280,0.0,2.0,83,0.00,,,0.00,0.00,VWS V14.01,2013-07-20 18:02:00,
2013-07-20 14:04:00,78.8,73.2,29.82,WNW,288,0.0,4.0,83,0.00,,,0.00,0.00,VWS V14.01,2013-07-20 18:04:00,
2013-07-20 14:05:00,78.8,73.2,29.82,WNW,288,1.0,1.0,83,0.00,,,0.00,0.00,VWS V14.01,2013-07-20 18:05:00,
2013-07-20 14:06:00,78.8,73.2,29.82,WNW,290,1.0,4.0,83,0.00,,,0.00,0.00,VWS V14.01,2013-07-20 18:06:00,
2013-07-20 14:07:00,78.8,73.2,29.82,WNW,290,1.0,2.0,83,0.00,,,0.00,0.00,VWS V14.01,2013-07-20 18:07:00,
2013-07-20 14:09:00,78.9,72.9,29.82,WNW,290,0.0,1.0,82,0.00,,,0.00,0.00,VWS V14.01,2013-07-20 18:09:00,
2013-07-20 14:10:00,78.9,73.3,29.82,WNW,290,0.0,0.0,83,0.00,,,0.00,0.00,VWS V14.01,2013-07-20 18:10:00,
2013-07-20 14:11:00,78.9,73.3,29.82,WNW,290,1.0,3.0,83,0.00,,,0.00,0.00,VWS V14.01,2013-07-20 18:11:00,
2013-07-20 14:12:00,79.0,73.0,29.82,WNW,290,0.0,0.0,82,0.00,,,0.00,0.00,VWS V14.01,2013-07-20 18:12:00,
2013-07-20 14:14:00,79.0,73.0,29.82,WSW,258,0.0,8.0,82,0.00,,,0.00,0.00,VWS V14.01,2013-07-20 18:14:00,
2013-07-20 14:15:00,78.9,72.9,29.82,WSW,258,2.0,2.0,82,0.00,,,0.00,0.00,VWS V14.01,2013-07-20 18:15:00,
2013-07-20 14:16:00,78.9,73.3,29.82,WSW,258,0.0,2.0,83,0.00,,,0.00,0.00,VWS V14.01,2013-07-20 18:16:00,
2013-07-20 14:17:00,78.9,73.3,29.82,WSW,258,3.0,4.0,83,0.00,,,0.00,0.00,VWS V14.01,2013-07-20 18:17:00,
2013-07-20 14:19:00,78.7,73.1,29.82,West,280,4.0,5.0,83,0.00,,,0.00,0.00,VWS V14.01,2013-07-20 18:19:00,
2013-07-20 14:21:00,78.6,73.0,29.82,WNW,294,4.0,8.0,83,0.00,,,0.00,0.00,VWS V14.01,2013-07-20 18:21:00,
2013-07-20 14:22:00,78.5,72.9,29.82,West,278,2.0,3.0,83,0.00,,,0.00,0.00,VWS V14.01,2013-07-20 18:22:00,
2013-07-20 14:24:00,78.3,72.7,29.82,WNW,286,2.0,8.0,83,0.00,,,0.00,0.00,VWS V14.01,2013-07-20 18:24:00,
2013-07-20 14:26:00,78.2,72.6,29.82,WNW,285,0.0,1.0,83,0.00,,,0.00,0.00,VWS V14.01,2013-07-20 18:26:00,
2013-07-20 14:27:00,78.2,73.0,29.82,WNW,285,1.0,1.0,84,0.00,,,0.00,0.00,VWS V14.01,2013-07-20 18:27:00,
2013-07-20 14:29:00,78.2,73.0,29.82,West,271,0.0,1.0,84,0.00,,,0.00,0.00,VWS V14.01,2013-07-20 18:29:00,
2013-07-20 14:31:00,78.3,73.1,29.82,West,281,2.0,4.0,84,0.00,,,0.00,0.00,VWS V14.01,2013-07-20 18:31:00,
2013-07-20 14:32:00,78.3,73.1,29.82,West,281,0.0,2.0,84,0.00,,,0.00,0.00,VWS V14.01,2013-07-20 18:32:00,
2013-07-20 14:33:00,78.4,73.2,29.82,West,281,0.0,0.0,84,0.00,,,0.00,0.00,VWS V14.01,2013-07-20 18:33:00,
2013-07-20 14:34:00,78.5,73.3,29.82,West,281,0.0,0.0,84,0.00,,,0.00,0.00,VWS V14.01,2013-07-20 18:34:00,
2013-07-20 14:37:00,78.6,72.7,29.82,NW,321,0.0,5.0,82,0.00,,,0.00,0.00,VWS V14.01,2013-07-20 18:37:00,
2013-07-20 14:38:00,78.8,72.8,29.82,NW,319,3.0,4.0,82,0.00,,,0.00,0.00,VWS V14.01,2013-07-20 18:38:00,
2013-07-20 14:40:00,78.9,73.3,29.82,NW,319,1.0,1.0,83,0.00,,,0.00,0.00,VWS V14.01,2013-07-20 18:40:00,
2013-07-20 14:42:00,79.2,73.2,29.82,NW,319,3.0,3.0,82,0.00,,,0.00,0.00,VWS V14.01,2013-07-20 18:42:00,
2013-07-20 14:43:00,79.2,72.5,29.81,NW,323,2.0,5.0,80,0.00,,,0.00,0.00,VWS V14.01,2013-07-20 18:43:00,
2013-07-20 14:45:00,79.3,73.3,29.81,NW,323,0.0,3.0,82,0.00,,,0.00,0.00,VWS V14.01,2013-07-20 18:45:00,
2013-07-20 14:47:00,79.5,73.5,29.81,West,280,4.0,6.0,82,0.00,,,0.00,0.00,VWS V14.01,2013-07-20 18:47:00,
2013-07-20 14:48:00,79.7,73.0,29.81,West,279,2.0,5.0,80,0.00,,,0.00,0.00,VWS V14.01,2013-07-20 18:48:00,
2013-07-20 14:49:00,79.8,73.1,29.81,West,279,0.0,5.0,80,0.00,,,0.00,0.00,VWS V14.01,2013-07-20 18:49:00,
2013-07-20 14:50:00,79.9,73.2,29.81,West,280,1.0,1.0,80,0.00,,,0.00,0.00,VWS V14.01,2013-07-20 18:50:00,
2013-07-20 14:52:00,80.0,72.9,29.81,West,278,3.0,5.0,79,0.00,,,0.00,0.00,VWS V14.01,2013-07-20 18:52:00,
2013-07-20 14:53:00,80.1,73.0,29.81,West,278,2.0,3.0,79,0.00,,,0.00,0.00,VWS V14.01,2013-07-20 18:53:00,
2013-07-20 14:55:00,80.2,73.1,29.81,West,278,3.0,5.0,79,0.00,,,0.00,0.00,VWS V14.01,2013-07-20 18:55:00,
2013-07-20 14:57:00,80.2,73.1,29.81,West,278,1.0,1.0,79,0.00,,,0.00,0.00,VWS V14.01,2013-07-20 18:57:00,
2013-07-20 14:59:00,80.2,73.1,29.81,West,278,0.0,2.0,79,0.00,,,0.00,0.00,VWS V14.01,2013-07-20 18:59:00,
2013-07-20 15:00:00,80.3,72.8,29.81,West,278,2.0,2.0,78,0.00,,,0.00,0.00,VWS V14.01,2013-07-20 19:00:00,
2013-07-20 15:02:00,80.5,73.0,29.81,West,268,4.0,5.0,78,0.00,,,0.00,0.00,VWS V14.01,2013-07-20 19:02:00,
2013-07-20 15:04:00,80.5,73.0,29.81,West,269,0.0,2.0,78,0.00,,,0.00,0.00,VWS V14.01,2013-07-20 19:04:00,
2013-07-20 15:05:00,80.6,73.1,29.81,West,275,1.0,5.0,78,0.00,,,0.00,0.00,VWS V14.01,2013-07-20 19:05:00,
2013-07-20 15:06:00,80.6,73.1,29.81,West,270,4.0,7.0,78,0.00,,,0.00,0.00,VWS V14.01,2013-07-20 19:06:00,
2013-07-20 15:07:00,80.5,72.6,29.81,West,271,0.0,1.0,77,0.00,,,0.00,0.00,VWS V14.01,2013-07-20 19:07:00,
2013-07-20 15:09:00,80.3,72.4,29.80,West,269,5.0,6.0,77,0.00,,,0.00,0.00,VWS V14.01,2013-07-20 19:09:00,
2013-07-20 15:10:00,80.2,72.7,29.80,West,278,1.0,5.0,78,0.00,,,0.00,0.00,VWS V14.01,2013-07-20 19:10:00,
2013-07-20 15:12:00,80.2,73.1,29.80,West,281,3.0,3.0,79,0.00,,,0.00,0.00,VWS V14.01,2013-07-20 19:12:00,
2013-07-20 15:14:00,80.2,72.7,29.81,West,281,0.0,3.0,78,0.00,,,0.00,0.00,VWS V14.01,2013-07-20 19:14:00,
2013-07-20 15:16:00,80.2,72.3,29.81,West,281,0.0,0.0,77,0.00,,,0.00,0.00,VWS V14.01,2013-07-20 19:16:00,
2013-07-20 15:17:00,80.3,72.8,29.81,West,281,0.0,3.0,78,0.00,,,0.00,0.00,VWS V14.01,2013-07-20 19:17:00,
2013-07-20 15:19:00,80.5,73.0,29.81,WNW,288,0.0,2.0,78,0.00,,,0.00,0.00,VWS V14.01,2013-07-20 19:19:00,
2013-07-20 15:22:00,80.6,72.7,29.82,WNW,287,0.0,2.0,77,0.00,,,0.00,0.00,VWS V14.01,2013-07-20 19:22:00,
2013-07-20 15:24:00,80.5,72.6,29.82,West,267,5.0,6.0,77,0.00,,,0.00,0.00,VWS V14.01,2013-07-20 19:24:00,
2013-07-20 15:27:00,80.3,72.1,29.82,WNW,288,1.0,5.0,76,0.00,,,0.00,0.00,VWS V14.01,2013-07-20 19:27:00,
2013-07-20 15:28:00,80.3,72.4,29.82,WNW,282,3.0,3.0,77,0.00,,,0.00,0.00,VWS V14.01,2013-07-20 19:28:00,
2013-07-20 15:30:00,80.2,72.3,29.82,West,263,7.0,7.0,77,0.00,,,0.00,0.00,VWS V14.01,2013-07-20 19:30:00,
2013-07-20 15:32:00,80.1,71.9,29.81,WNW,298,2.0,5.0,76,0.00,,,0.00,0.00,VWS V14.01,2013-07-20 19:32:00,
2013-07-20 15:33:00,80.1,71.9,29.82,WNW,301,7.0,7.0,76,0.00,,,0.00,0.00,VWS V14.01,2013-07-20 19:33:00,
2013-07-20 15:35:00,79.9,71.7,29.81,West,266,0.0,4.0,76,0.00,,,0.00,0.00,VWS V14.01,2013-07-20 19:35:00,
2013-07-20 15:37:00,79.9,72.1,29.81,West,267,0.0,1.0,77,0.00,,,0.00,0.00,VWS V14.01,2013-07-20 19:37:00,
2013-07-20 15:40:00,80.0,71.8,29.81,West,267,0.0,2.0,76,0.00,,,0.00,0.00,VWS V14.01,2013-07-20 19:40:00,
2013-07-20 15:42:00,80.1,71.9,29.81,West,267,0.0,1.0,76,0.00,,,0.00,0.00,VWS V14.01,2013-07-20 19:42:00,
2013-07-20 15:43:00,80.1,71.9,29.81,West,267,0.0,2.0,76,0.00,,,0.00,0.00,VWS V14.01,2013-07-20 19:43:00,
2013-07-20 15:45:00,80.2,71.9,29.81,West,269,0.0,1.0,76,0.00,,,0.00,0.00,VWS V14.01,2013-07-20 19:45:00,
2013-07-20 15:47:00,80.2,71.9,29.81,West,273,1.0,3.0,76,0.00,,,0.00,0.00,VWS V14.01,2013-07-20 19:47:00,
2013-07-20 15:48:00,80.2,71.9,29.81,West,270,4.0,6.0,76,0.00,,,0.00,0.00,VWS V14.01,2013-07-20 19:48:00,
2013-07-20 15:50:00,80.3,72.1,29.81,WNW,298,1.0,2.0,76,0.00,,,0.00,0.00,VWS V14.01,2013-07-20 19:50:00,
2013-07-20 15:52:00,80.3,71.7,29.80,West,280,4.0,7.0,75,0.00,,,0.00,0.00,VWS V14.01,2013-07-20 19:52:00,
2013-07-20 15:53:00,80.3,71.7,29.80,West,279,0.0,5.0,75,0.00,,,0.00,0.00,VWS V14.01,2013-07-20 19:53:00,
2013-07-20 15:55:00,80.3,71.7,29.80,West,279,1.0,3.0,75,0.00,,,0.00,0.00,VWS V14.01,2013-07-20 19:55:00,
2013-07-20 15:57:00,80.4,72.2,29.80,NW,326,1.0,1.0,76,0.00,,,0.00,0.00,VWS V14.01,2013-07-20 19:57:00,
2013-07-20 15:58:00,80.5,72.6,29.80,NW,326,0.0,1.0,77,0.00,,,0.00,0.00,VWS V14.01,2013-07-20 19:58:00,
2013-07-20 15:59:00,80.6,72.3,29.80,West,267,3.0,3.0,76,0.00,,,0.00,0.00,VWS V14.01,2013-07-20 19:59:00,
2013-07-20 16:00:00,80.7,72.4,29.80,West,263,0.0,2.0,76,0.00,,,0.00,0.00,VWS V14.01,2013-07-20 20:00:00,
2013-07-20 16:02:00,80.8,72.1,29.80,West,264,0.0,1.0,75,0.00,,,0.00,0.00,VWS V14.01,2013-07-20 20:02:00,
2013-07-20 16:04:00,80.8,72.1,29.80,West,264,0.0,1.0,75,0.00,,,0.00,0.00,VWS V14.01,2013-07-20 20:04:00,
2013-07-20 16:05:00,80.9,72.2,29.80,West,264,0.0,3.0,75,0.00,,,0.00,0.00,VWS V14.01,2013-07-20 20:05:00,
2013-07-20 16:06:00,80.9,72.2,29.80,West,276,4.0,4.0,75,0.00,,,0.00,0.00,VWS V14.01,2013-07-20 20:06:00,
2013-07-20 16:08:00,81.0,72.7,29.80,West,276,1.0,4.0,76,0.00,,,0.00,0.00,VWS V14.01,2013-07-20 20:08:00,
2013-07-20 16:09:00,81.1,72.8,29.80,West,276,0.0,1.0,76,0.00,,,0.00,0.00,VWS V14.01,2013-07-20 20:09:00,
2013-07-20 16:10:00,81.1,72.4,29.80,WNW,297,0.0,5.0,75,0.00,,,0.00,0.00,VWS V14.01,2013-07-20 20:10:00,
2013-07-20 16:11:00,81.1,72.0,29.80,NNW,329,1.0,1.0,74,0.00,,,0.00,0.00,VWS V14.01,2013-07-20 20:11:00,
2013-07-20 16:13:00,81.1,72.4,29.80,NNW,329,0.0,0.0,75,0.00,,,0.00,0.00,VWS V14.01,2013-07-20 20:13:00,
2013-07-20 16:14:00,81.1,72.4,29.80,WNW,293,1.0,6.0,75,0.00,,,0.00,0.00,VWS V14.01,2013-07-20 20:14:00,
2013-07-20 16:15:00,81.1,72.0,29.80,West,270,0.0,4.0,74,0.00,,,0.00,0.00,VWS V14.01,2013-07-20 20:15:00,
2013-07-20 16:17:00,81.1,72.0,29.80,West,270,0.0,0.0,74,0.00,,,0.00,0.00,VWS V14.01,2013-07-20 20:17:00,
2013-07-20 16:18:00,81.1,72.0,29.80,West,271,4.0,6.0,74,0.00,,,0.00,0.00,VWS V14.01,2013-07-20 20:18:00,
2013-07-20 16:19:00,81.0,72.3,29.80,West,271,1.0,5.0,75,0.00,,,0.00,0.00,VWS V14.01,2013-07-20 20:19:00,
2013-07-20 16:20:00,81.0,71.5,29.79,West,271,2.0,3.0,73,0.00,,,0.00,0.00,VWS V14.01,2013-07-20 20:20:00,
2013-07-20 16:22:00,80.9,71.8,29.79,West,270,4.0,6.0,74,0.00,,,0.00,0.00,VWS V14.01,2013-07-20 20:22:00,
2013-07-20 16:23:00,80.9,71.4,29.80,West,270,3.0,4.0,73,0.00,,,0.00,0.00,VWS V14.01,2013-07-20 20:23:00,
2013-07-20 16:24:00,80.8,71.7,29.80,West,271,5.0,5.0,74,0.00,,,0.00,0.00,VWS V14.01,2013-07-20 20:24:00,
2013-07-20 16:25:00,80.8,71.7,29.80,West,280,1.0,5.0,74,0.00,,,0.00,0.00,VWS V14.01,2013-07-20 20:25:00,
2013-07-20 16:27:00,80.8,72.1,29.80,WNW,282,2.0,7.0,75,0.00,,,0.00,0.00,VWS V14.01,2013-07-20 20:27:00,
2013-07-20 16:28:00,80.8,72.5,29.80,West,275,6.0,6.0,76,0.00,,,0.00,0.00,VWS V14.01,2013-07-20 20:28:00,
2013-07-20 16:29:00,80.8,72.1,29.79,West,275,0.0,1.0,75,0.00,,,0.00,0.00,VWS V14.01,2013-07-20 20:29:00,
2013-07-20 16:30:00,80.8,72.1,29.79,West,275,1.0,2.0,75,0.00,,,0.00,0.00,VWS V14.01,2013-07-20 20:30:00,
2013-07-20 16:32:00,80.8,72.1,29.79,West,275,3.0,3.0,75,0.00,,,0.00,0.00,VWS V14.01,2013-07-20 20:32:00,
2013-07-20 16:33:00,80.8,72.1,29.79,West,275,1.0,5.0,75,0.00,,,0.00,0.00,VWS V14.01,2013-07-20 20:33:00,
2013-07-20 16:34:00,80.9,71.8,29.79,West,275,0.0,1.0,74,0.00,,,0.00,0.00,VWS V14.01,2013-07-20 20:34:00,
2013-07-20 16:35:00,80.9,72.2,29.79,West,275,0.0,1.0,75,0.00,,,0.00,0.00,VWS V14.01,2013-07-20 20:35:00,
2013-07-20 16:37:00,81.1,72.0,29.79,West,275,0.0,4.0,74,0.00,,,0.00,0.00,VWS V14.01,2013-07-20 20:37:00,
2013-07-20 16:38:00,81.1,72.0,29.79,West,275,0.0,1.0,74,0.00,,,0.00,0.00,VWS V14.01,2013-07-20 20:38:00,
2013-07-20 16:40:00,81.2,72.5,29.79,West,275,1.0,1.0,75,0.00,,,0.00,0.00,VWS V14.01,2013-07-20 20:40:00,
2013-07-20 16:42:00,81.2,72.5,29.79,WNW,284,1.0,1.0,75,0.00,,,0.00,0.00,VWS V14.01,2013-07-20 20:42:00,
2013-07-20 16:44:00,81.3,72.6,29.79,WNW,284,0.0,1.0,75,0.00,,,0.00,0.00,VWS V14.01,2013-07-20 20:44:00,
2013-07-20 16:45:00,81.4,72.7,29.79,WNW,284,0.0,2.0,75,0.00,,,0.00,0.00,VWS V14.01,2013-07-20 20:45:00,
2013-07-20 16:47:00,81.5,72.8,29.79,WNW,282,3.0,5.0,75,0.00,,,0.00,0.00,VWS V14.01,2013-07-20 20:47:00,
2013-07-20 16:49:00,81.5,72.4,29.80,West,273,1.0,7.0,74,0.00,,,0.00,0.00,VWS V14.01,2013-07-20 20:49:00,
2013-07-20 16:50:00,81.5,72.4,29.80,WNW,298,2.0,2.0,74,0.00,,,0.00,0.00,VWS V14.01,2013-07-20 20:50:00,
2013-07-20 16:53:00,81.4,72.7,29.79,WNW,298,0.0,1.0,75,0.00,,,0.00,0.00,VWS V14.01,2013-07-20 20:53:00,
2013-07-20 16:54:00,81.5,72.8,29.80,WNW,298,2.0,3.0,75,0.00,,,0.00,0.00,VWS V14.01,2013-07-20 20:54:00,
2013-07-20 16:55:00,81.5,73.2,29.79,WNW,298,0.0,1.0,76,0.00,,,0.00,0.00,VWS V14.01,2013-07-20 20:55:00,
2013-07-20 16:58:00,81.5,73.2,29.79,WNW,298,0.0,1.0,76,0.00,,,0.00,0.00,VWS V14.01,2013-07-20 20:58:00,
2013-07-20 16:59:00,81.6,73.3,29.79,WNW,298,1.0,1.0,76,0.00,,,0.00,0.00,VWS V14.01,2013-07-20 20:59:00,
2013-07-20 17:01:00,81.5,73.2,29.79,West,278,0.0,1.0,76,0.00,,,0.00,0.00,VWS V14.01,2013-07-20 21:01:00,
2013-07-20 17:03:00,81.5,74.0,29.79,West,279,0.0,0.0,78,0.00,,,0.00,0.00,VWS V14.01,2013-07-20 21:03:00,
2013-07-20 17:05:00,81.4,73.5,29.79,West,279,0.0,3.0,77,0.00,,,0.00,0.00,VWS V14.01,2013-07-20 21:05:00,
2013-07-20 17:06:00,81.4,73.9,29.79,West,279,0.0,1.0,78,0.00,,,0.00,0.00,VWS V14.01,2013-07-20 21:06:00,
2013-07-20 17:08:00,81.3,73.8,29.79,West,279,2.0,2.0,78,0.00,,,0.00,0.00,VWS V14.01,2013-07-20 21:08:00,
2013-07-20 17:09:00,81.3,73.4,29.79,West,279,0.0,2.0,77,0.00,,,0.00,0.00,VWS V14.01,2013-07-20 21:09:00,
2013-07-20 17:10:00,81.2,73.3,29.79,West,279,0.0,3.0,77,0.00,,,0.00,0.00,VWS V14.01,2013-07-20 21:10:00,
2013-07-20 17:12:00,81.1,73.2,29.79,West,268,3.0,6.0,77,0.00,,,0.00,0.00,VWS V14.01,2013-07-20 21:12:00,
2013-07-20 17:14:00,81.0,72.7,29.79,West,268,0.0,1.0,76,0.00,,,0.00,0.00,VWS V14.01,2013-07-20 21:14:00,
2013-07-20 17:15:00,80.9,72.6,29.80,West,268,0.0,0.0,76,0.00,,,0.00,0.00,VWS V14.01,2013-07-20 21:15:00,
2013-07-20 17:17:00,80.9,73.0,29.80,West,268,0.0,0.0,77,0.00,,,0.00,0.00,VWS V14.01,2013-07-20 21:17:00,
2013-07-20 17:19:00,80.8,72.9,29.80,West,268,0.0,1.0,77,0.00,,,0.00,0.00,VWS V14.01,2013-07-20 21:19:00,
2013-07-20 17:20:00,80.8,73.3,29.80,West,268,0.0,2.0,78,0.00,,,0.00,0.00,VWS V14.01,2013-07-20 21:20:00,
2013-07-20 17:22:00,80.7,73.2,29.80,West,268,1.0,2.0,78,0.00,,,0.00,0.00,VWS V14.01,2013-07-20 21:22:00,
2013-07-20 17:24:00,80.7,73.2,29.80,West,268,0.0,1.0,78,0.00,,,0.00,0.00,VWS V14.01,2013-07-20 21:24:00,
2013-07-20 17:25:00,80.6,73.1,29.80,West,269,3.0,4.0,78,0.00,,,0.00,0.00,VWS V14.01,2013-07-20 21:25:00,
2013-07-20 17:27:00,80.5,73.0,29.80,West,270,3.0,5.0,78,0.00,,,0.00,0.00,VWS V14.01,2013-07-20 21:27:00,
2013-07-20 17:29:00,80.3,73.2,29.80,West,271,2.0,3.0,79,0.00,,,0.00,0.00,VWS V14.01,2013-07-20 21:29:00,
2013-07-20 17:30:00,80.3,73.2,29.80,West,271,3.0,4.0,79,0.00,,,0.00,0.00,VWS V14.01,2013-07-20 21:30:00,
2013-07-20 17:32:00,80.2,73.1,29.80,West,277,0.0,4.0,79,0.00,,,0.00,0.00,VWS V14.01,2013-07-20 21:32:00,
2013-07-20 17:34:00,80.1,73.0,29.80,West,277,0.0,2.0,79,0.00,,,0.00,0.00,VWS V14.01,2013-07-20 21:34:00,
2013-07-20 17:35:00,80.0,72.9,29.80,West,277,0.0,0.0,79,0.00,,,0.00,0.00,VWS V14.01,2013-07-20 21:35:00,
2013-07-20 17:37:00,80.0,72.9,29.80,West,277,0.0,1.0,79,0.00,,,0.00,0.00,VWS V14.01,2013-07-20 21:37:00,
2013-07-20 17:39:00,79.9,72.8,29.80,West,275,0.0,5.0,79,0.00,,,0.00,0.00,VWS V14.01,2013-07-20 21:39:00,
2013-07-20 17:40:00,79.9,72.8,29.80,West,275,4.0,6.0,79,0.00,,,0.00,0.00,VWS V14.01,2013-07-20 21:40:00,
2013-07-20 17:42:00,79.8,72.7,29.80,West,275,5.0,5.0,79,0.00,,,0.00,0.00,VWS V14.01,2013-07-20 21:42:00,
2013-07-20 17:44:00,79.7,72.6,29.80,West,275,0.0,6.0,79,0.00,,,0.00,0.00,VWS V14.01,2013-07-20 21:44:00,
2013-07-20 17:45:00,79.7,72.6,29.80,West,275,2.0,3.0,79,0.00,,,0.00,0.00,VWS V14.01,2013-07-20 21:45:00,
2013-07-20 17:47:00,79.6,72.5,29.80,West,275,0.0,1.0,79,0.00,,,0.00,0.00,VWS V14.01,2013-07-20 21:47:00,
2013-07-20 17:48:00,79.6,72.9,29.80,West,275,5.0,5.0,80,0.00,,,0.00,0.00,VWS V14.01,2013-07-20 21:48:00,
2013-07-20 17:49:00,79.6,72.5,29.80,West,275,4.0,5.0,79,0.00,,,0.00,0.00,VWS V14.01,2013-07-20 21:49:00,
2013-07-20 17:50:00,79.6,72.5,29.80,West,275,0.0,0.0,79,0.00,,,0.00,0.00,VWS V14.01,2013-07-20 21:50:00,
2013-07-20 17:52:00,79.6,72.5,29.80,West,275,0.0,3.0,79,0.00,,,0.00,0.00,VWS V14.01,2013-07-20 21:52:00,
2013-07-20 17:53:00,79.6,72.5,29.80,West,275,0.0,0.0,79,0.00,,,0.00,0.00,VWS V14.01,2013-07-20 21:53:00,
2013-07-20 17:54:00,79.6,72.5,29.80,West,275,0.0,1.0,79,0.00,,,0.00,0.00,VWS V14.01,2013-07-20 21:54:00,
2013-07-20 17:55:00,79.6,72.5,29.80,West,275,0.0,0.0,79,0.00,,,0.00,0.00,VWS V14.01,2013-07-20 21:55:00,
2013-07-20 17:57:00,79.7,72.6,29.80,West,275,0.0,0.0,79,0.00,,,0.00,0.00,VWS V14.01,2013-07-20 21:57:00,
2013-07-20 17:58:00,79.8,72.7,29.80,West,275,0.0,0.0,79,0.00,,,0.00,0.00,VWS V14.01,2013-07-20 21:58:00,
2013-07-20 18:00:00,79.8,72.7,29.80,West,275,0.0,1.0,79,0.00,,,0.00,0.00,VWS V14.01,2013-07-20 22:00:00,
2013-07-20 18:01:00,79.8,72.7,29.80,West,275,0.0,0.0,79,0.00,,,0.00,0.00,VWS V14.01,2013-07-20 22:01:00,
2013-07-20 18:03:00,79.9,73.2,29.80,West,275,0.0,0.0,80,0.00,,,0.00,0.00,VWS V14.01,2013-07-20 22:03:00,
2013-07-20 18:05:00,80.0,72.9,29.80,West,277,3.0,4.0,79,0.00,,,0.00,0.00,VWS V14.01,2013-07-20 22:05:00,
2013-07-20 18:06:00,80.0,72.5,29.80,West,277,1.0,1.0,78,0.00,,,0.00,0.00,VWS V14.01,2013-07-20 22:06:00,
2013-07-20 18:08:00,80.0,72.5,29.80,West,277,0.0,2.0,78,0.00,,,0.00,0.00,VWS V14.01,2013-07-20 22:08:00,
2013-07-20 18:10:00,80.0,72.9,29.80,West,277,0.0,0.0,79,0.00,,,0.00,0.00,VWS V14.01,2013-07-20 22:10:00,
2013-07-20 18:11:00,80.0,72.9,29.80,West,277,0.0,1.0,79,0.00,,,0.00,0.00,VWS V14.01,2013-07-20 22:11:00,
2013-07-20 18:13:00,80.1,73.0,29.80,West,277,0.0,0.0,79,0.00,,,0.00,0.00,VWS V14.01,2013-07-20 22:13:00,
2013-07-20 18:15:00,80.1,73.0,29.80,West,277,0.0,1.0,79,0.00,,,0.00,0.00,VWS V14.01,2013-07-20 22:15:00,
2013-07-20 18:17:00,80.0,72.9,29.80,West,273,2.0,7.0,79,0.00,,,0.00,0.00,VWS V14.01,2013-07-20 22:17:00,
2013-07-20 18:18:00,79.9,73.2,29.80,West,273,0.0,2.0,80,0.00,,,0.00,0.00,VWS V14.01,2013-07-20 22:18:00,
2013-07-20 18:20:00,79.8,72.7,29.81,West,273,0.0,3.0,79,0.00,,,0.00,0.00,VWS V14.01,2013-07-20 22:20:00,
2013-07-20 18:22:00,79.7,72.6,29.81,West,273,1.0,2.0,79,0.00,,,0.00,0.00,VWS V14.01,2013-07-20 22:22:00,
2013-07-20 18:24:00,79.7,73.0,29.81,West,273,2.0,6.0,80,0.00,,,0.00,0.00,VWS V14.01,2013-07-20 22:24:00,
2013-07-20 18:25:00,79.6,72.9,29.81,West,269,6.0,6.0,80,0.00,,,0.00,0.00,VWS V14.01,2013-07-20 22:25:00,
2013-07-20 18:28:00,79.5,73.2,29.80,West,269,0.0,0.0,81,0.00,,,0.00,0.00,VWS V14.01,2013-07-20 22:28:00,
2013-07-20 18:29:00,79.5,73.2,29.80,West,269,0.0,1.0,81,0.00,,,0.00,0.00,VWS V14.01,2013-07-20 22:29:00,
2013-07-20 18:30:00,79.4,73.1,29.80,West,268,4.0,4.0,81,0.00,,,0.00,0.00,VWS V14.01,2013-07-20 22:30:00,
2013-07-20 18:33:00,79.4,73.1,29.80,West,268,2.0,2.0,81,0.00,,,0.00,0.00,VWS V14.01,2013-07-20 22:33:00,
2013-07-20 18:34:00,79.4,73.1,29.80,West,268,2.0,3.0,81,0.00,,,0.00,0.00,VWS V14.01,2013-07-20 22:34:00,
2013-07-20 18:35:00,79.3,73.0,29.81,West,268,1.0,2.0,81,0.00,,,0.00,0.00,VWS V14.01,2013-07-20 22:35:00,
2013-07-20 18:36:00,79.3,73.0,29.81,West,268,0.0,2.0,81,0.00,,,0.00,0.00,VWS V14.01,2013-07-20 22:36:00,
2013-07-20 18:38:00,79.3,73.0,29.81,West,268,0.0,1.0,81,0.00,,,0.00,0.00,VWS V14.01,2013-07-20 22:38:00,
2013-07-20 18:39:00,79.2,72.9,29.81,West,268,3.0,3.0,81,0.00,,,0.00,0.00,VWS V14.01,2013-07-20 22:39:00,
2013-07-20 18:41:00,79.2,72.9,29.81,West,268,0.0,3.0,81,0.00,,,0.00,0.00,VWS V14.01,2013-07-20 22:41:00,
2013-07-20 18:43:00,79.1,73.1,29.81,West,268,0.0,0.0,82,0.00,,,0.00,0.00,VWS V14.01,2013-07-20 22:43:00,
2013-07-20 18:44:00,79.1,73.1,29.80,West,268,0.0,1.0,82,0.00,,,0.00,0.00,VWS V14.01,2013-07-20 22:44:00,
2013-07-20 18:46:00,79.1,73.1,29.80,West,268,0.0,4.0,82,0.00,,,0.00,0.00,VWS V14.01,2013-07-20 22:46:00,
2013-07-20 18:47:00,79.1,73.1,29.80,West,268,1.0,1.0,82,0.00,,,0.00,0.00,VWS V14.01,2013-07-20 22:47:00,
2013-07-20 18:48:00,79.0,73.0,29.80,West,268,0.0,0.0,82,0.00,,,0.00,0.00,VWS V14.01,2013-07-20 22:48:00,
2013-07-20 18:49:00,78.9,72.9,29.80,West,268,0.0,0.0,82,0.00,,,0.00,0.00,VWS V14.01,2013-07-20 22:49:00,
2013-07-20 18:52:00,78.9,72.9,29.80,West,268,3.0,3.0,82,0.00,,,0.00,0.00,VWS V14.01,2013-07-20 22:52:00,
2013-07-20 18:53:00,78.9,72.9,29.80,West,268,3.0,3.0,82,0.00,,,0.00,0.00,VWS V14.01,2013-07-20 22:53:00,
2013-07-20 18:55:00,78.8,72.8,29.80,West,268,0.0,4.0,82,0.00,,,0.00,0.00,VWS V14.01,2013-07-20 22:55:00,
2013-07-20 18:58:00,78.7,72.8,29.80,West,268,0.0,1.0,82,0.00,,,0.00,0.00,VWS V14.01,2013-07-20 22:58:00,
2013-07-20 19:00:00,78.7,73.1,29.80,West,268,1.0,3.0,83,0.00,,,0.00,0.00,VWS V14.01,2013-07-20 23:00:00,
2013-07-20 19:03:00,78.6,73.0,29.80,West,268,0.0,3.0,83,0.00,,,0.00,0.00,VWS V14.01,2013-07-20 23:03:00,
2013-07-20 19:05:00,78.6,73.0,29.80,West,268,1.0,4.0,83,0.00,,,0.00,0.00,VWS V14.01,2013-07-20 23:05:00,
2013-07-20 19:08:00,78.5,73.3,29.80,West,268,2.0,5.0,84,0.00,,,0.00,0.00,VWS V14.01,2013-07-20 23:08:00,
2013-07-20 19:10:00,78.5,73.3,29.80,West,271,0.0,7.0,84,0.00,,,0.00,0.00,VWS V14.01,2013-07-20 23:10:00,
2013-07-20 19:13:00,78.3,73.1,29.80,West,273,2.0,6.0,84,0.00,,,0.00,0.00,VWS V14.01,2013-07-20 23:13:00,
2013-07-20 19:15:00,78.2,73.0,29.80,West,273,0.0,0.0,84,0.00,,,0.00,0.00,VWS V14.01,2013-07-20 23:15:00,
2013-07-20 19:18:00,78.2,73.0,29.81,West,273,0.0,0.0,84,0.00,,,0.00,0.00,VWS V14.01,2013-07-20 23:18:00,
2013-07-20 19:19:00,78.2,73.0,29.81,West,273,0.0,0.0,84,0.00,,,0.00,0.00,VWS V14.01,2013-07-20 23:19:00,
2013-07-20 19:21:00,78.2,73.3,29.81,West,273,0.0,1.0,85,0.00,,,0.00,0.00,VWS V14.01,2013-07-20 23:21:00,
2013-07-20 19:23:00,78.2,73.3,29.81,West,273,2.0,2.0,85,0.00,,,0.00,0.00,VWS V14.01,2013-07-20 23:23:00,
2013-07-20 19:24:00,78.2,73.3,29.81,West,273,0.0,2.0,85,0.00,,,0.00,0.00,VWS V14.01,2013-07-20 23:24:00,
2013-07-20 19:27:00,78.1,73.2,29.81,West,273,0.0,2.0,85,0.00,,,0.00,0.00,VWS V14.01,2013-07-20 23:27:00,
2013-07-20 19:28:00,78.1,73.2,29.80,West,273,0.0,2.0,85,0.00,,,0.00,0.00,VWS V14.01,2013-07-20 23:28:00,
2013-07-20 19:29:00,78.1,73.2,29.80,West,273,1.0,2.0,85,0.00,,,0.00,0.00,VWS V14.01,2013-07-20 23:29:00,
2013-07-20 19:32:00,78.0,73.1,29.81,West,273,0.0,4.0,85,0.00,,,0.00,0.00,VWS V14.01,2013-07-20 23:32:00,
2013-07-20 19:34:00,78.0,73.1,29.81,West,269,0.0,4.0,85,0.00,,,0.00,0.00,VWS V14.01,2013-07-20 23:34:00,
2013-07-20 19:35:00,77.9,73.0,29.81,West,269,1.0,3.0,85,0.00,,,0.00,0.00,VWS V14.01,2013-07-20 23:35:00,
2013-07-20 19:37:00,77.8,72.9,29.81,West,269,0.0,0.0,85,0.00,,,0.00,0.00,VWS V14.01,2013-07-20 23:37:00,
2013-07-20 19:38:00,77.8,72.9,29.80,West,269,0.0,0.0,85,0.00,,,0.00,0.00,VWS V14.01,2013-07-20 23:38:00,
2013-07-20 19:39:00,77.8,72.9,29.80,West,269,0.0,1.0,85,0.00,,,0.00,0.00,VWS V14.01,2013-07-20 23:39:00,
2013-07-20 19:40:00,77.8,72.9,29.81,West,269,0.0,1.0,85,0.00,,,0.00,0.00,VWS V14.01,2013-07-20 23:40:00,
2013-07-20 19:42:00,77.7,72.8,29.81,West,269,1.0,2.0,85,0.00,,,0.00,0.00,VWS V14.01,2013-07-20 23:42:00,
2013-07-20 19:44:00,77.6,73.1,29.81,West,269,0.0,3.0,86,0.00,,,0.00,0.00,VWS V14.01,2013-07-20 23:44:00,
2013-07-20 19:45:00,77.6,73.1,29.81,West,269,1.0,3.0,86,0.00,,,0.00,0.00,VWS V14.01,2013-07-20 23:45:00,
2013-07-20 19:47:00,77.5,73.0,29.81,West,269,0.0,3.0,86,0.00,,,0.00,0.00,VWS V14.01,2013-07-20 23:47:00,
2013-07-20 19:49:00,77.4,72.9,29.81,West,269,0.0,2.0,86,0.00,,,0.00,0.00,VWS V14.01,2013-07-20 23:49:00,
2013-07-20 19:50:00,77.4,72.9,29.81,West,270,0.0,1.0,86,0.00,,,0.00,0.00,VWS V14.01,2013-07-20 23:50:00,
2013-07-20 19:52:00,77.3,72.8,29.81,West,271,4.0,6.0,86,0.00,,,0.00,0.00,VWS V14.01,2013-07-20 23:52:00,
2013-07-20 19:54:00,77.2,72.7,29.81,West,273,3.0,6.0,86,0.00,,,0.00,0.00,VWS V14.01,2013-07-20 23:54:00,
2013-07-20 19:55:00,77.1,72.6,29.81,West,273,0.0,1.0,86,0.00,,,0.00,0.00,VWS V14.01,2013-07-20 23:55:00,
2013-07-20 19:56:00,77.1,72.6,29.81,West,275,7.0,7.0,86,0.00,,,0.00,0.00,VWS V14.01,2013-07-20 23:56:00,
2013-07-20 19:57:00,76.9,72.4,29.81,West,270,0.0,0.0,86,0.00,,,0.00,0.00,VWS V14.01,2013-07-20 23:57:00,
2013-07-20 19:59:00,76.9,72.7,29.81,West,270,1.0,1.0,87,0.00,,,0.00,0.00,VWS V14.01,2013-07-20 23:59:00,
2013-07-20 20:00:00,76.9,72.7,29.81,West,270,2.0,3.0,87,0.00,,,0.00,0.00,VWS V14.01,2013-07-21 00:00:00,
2013-07-20 20:01:00,76.8,72.3,29.81,West,270,1.0,4.0,86,0.00,,,0.00,0.00,VWS V14.01,2013-07-21 00:01:00,
2013-07-20 20:02:00,76.7,72.2,29.81,West,270,1.0,1.0,86,0.00,,,0.00,0.00,VWS V14.01,2013-07-21 00:02:00,
2013-07-20 20:04:00,76.6,72.4,29.81,West,270,2.0,4.0,87,0.00,,,0.00,0.00,VWS V14.01,2013-07-21 00:04:00,
2013-07-20 20:05:00,76.6,72.4,29.81,West,270,2.0,2.0,87,0.00,,,0.00,0.00,VWS V14.01,2013-07-21 00:05:00,
2013-07-20 20:07:00,76.5,72.3,29.82,West,270,4.0,4.0,87,0.00,,,0.00,0.00,VWS V14.01,2013-07-21 00:07:00,
2013-07-20 20:08:00,76.4,72.2,29.82,West,271,5.0,5.0,87,0.00,,,0.00,0.00,VWS V14.01,2013-07-21 00:08:00,
2013-07-20 20:10:00,76.3,72.2,29.82,West,269,1.0,5.0,87,0.00,,,0.00,0.00,VWS V14.01,2013-07-21 00:10:00,
2013-07-20 20:11:00,76.2,72.1,29.82,West,269,3.0,3.0,87,0.00,,,0.00,0.00,VWS V14.01,2013-07-21 00:11:00,
2013-07-20 20:12:00,76.2,72.1,29.82,West,269,5.0,5.0,87,0.00,,,0.00,0.00,VWS V14.01,2013-07-21 00:12:00,
2013-07-20 20:13:00,76.2,72.1,29.82,West,269,4.0,5.0,87,0.00,,,0.00,0.00,VWS V14.01,2013-07-21 00:13:00,
2013-07-20 20:15:00,76.0,71.9,29.82,West,269,0.0,1.0,87,0.00,,,0.00,0.00,VWS V14.01,2013-07-21 00:15:00,
2013-07-20 20:16:00,76.0,71.9,29.82,West,269,0.0,0.0,87,0.00,,,0.00,0.00,VWS V14.01,2013-07-21 00:16:00,
2013-07-20 20:17:00,76.0,71.9,29.82,West,269,0.0,3.0,87,0.00,,,0.00,0.00,VWS V14.01,2013-07-21 00:17:00,
2013-07-20 20:18:00,76.0,72.2,29.82,West,269,2.0,3.0,88,0.00,,,0.00,0.00,VWS V14.01,2013-07-21 00:18:00,
2013-07-20 20:20:00,75.9,71.8,29.82,West,281,0.0,3.0,87,0.00,,,0.00,0.00,VWS V14.01,2013-07-21 00:20:00,
2013-07-20 20:22:00,75.8,72.0,29.82,West,281,1.0,7.0,88,0.00,,,0.00,0.00,VWS V14.01,2013-07-21 00:22:00,
2013-07-20 20:23:00,75.8,72.0,29.82,West,281,0.0,4.0,88,0.00,,,0.00,0.00,VWS V14.01,2013-07-21 00:23:00,
2013-07-20 20:25:00,75.7,71.9,29.83,West,281,0.0,5.0,88,0.00,,,0.00,0.00,VWS V14.01,2013-07-21 00:25:00,
2013-07-20 20:27:00,75.7,71.9,29.83,West,281,0.0,1.0,88,0.00,,,0.00,0.00,VWS V14.01,2013-07-21 00:27:00,
2013-07-20 20:28:00,75.7,71.9,29.83,West,281,0.0,0.0,88,0.00,,,0.00,0.00,VWS V14.01,2013-07-21 00:28:00,
2013-07-20 20:30:00,75.6,71.8,29.83,West,281,4.0,4.0,88,0.00,,,0.00,0.00,VWS V14.01,2013-07-21 00:30:00,
2013-07-20 20:32:00,75.5,71.7,29.83,West,281,2.0,3.0,88,0.00,,,0.00,0.00,VWS V14.01,2013-07-21 00:32:00,
2013-07-20 20:33:00,75.5,71.7,29.83,West,281,0.0,3.0,88,0.00,,,0.00,0.00,VWS V14.01,2013-07-21 00:33:00,
2013-07-20 20:35:00,75.5,71.7,29.83,West,281,0.0,1.0,88,0.00,,,0.00,0.00,VWS V14.01,2013-07-21 00:35:00,
2013-07-20 20:37:00,75.4,71.6,29.83,West,281,0.0,2.0,88,0.00,,,0.00,0.00,VWS V14.01,2013-07-21 00:37:00,
2013-07-20 20:38:00,75.3,71.5,29.83,West,281,0.0,2.0,88,0.00,,,0.00,0.00,VWS V14.01,2013-07-21 00:38:00,
2013-07-20 20:39:00,75.3,71.5,29.83,West,281,0.0,0.0,88,0.00,,,0.00,0.00,VWS V14.01,2013-07-21 00:39:00,
2013-07-20 20:40:00,75.3,71.8,29.83,West,281,2.0,3.0,89,0.00,,,0.00,0.00,VWS V14.01,2013-07-21 00:40:00,
2013-07-20 20:43:00,75.2,71.7,29.83,West,280,5.0,5.0,89,0.00,,,0.00,0.00,VWS V14.01,2013-07-21 00:43:00,
2013-07-20 20:44:00,75.1,71.6,29.83,West,280,0.0,0.0,89,0.00,,,0.00,0.00,VWS V14.01,2013-07-21 00:44:00,
2013-07-20 20:45:00,75.1,71.6,29.84,West,280,0.0,3.0,89,0.00,,,0.00,0.00,VWS V14.01,2013-07-21 00:45:00,
2013-07-20 20:48:00,75.0,71.5,29.84,West,280,0.0,1.0,89,0.00,,,0.00,0.00,VWS V14.01,2013-07-21 00:48:00,
2013-07-20 20:49:00,75.0,71.5,29.84,West,280,0.0,2.0,89,0.00,,,0.00,0.00,VWS V14.01,2013-07-21 00:49:00,
2013-07-20 20:51:00,74.9,71.8,29.84,West,280,0.0,1.0,90,0.00,,,0.00,0.00,VWS V14.01,2013-07-21 00:51:00,
2013-07-20 20:53:00,74.9,71.8,29.84,WNW,282,1.0,4.0,90,0.00,,,0.00,0.00,VWS V14.01,2013-07-21 00:53:00,
2013-07-20 20:54:00,74.8,71.7,29.84,West,281,0.0,6.0,90,0.00,,,0.00,0.00,VWS V14.01,2013-07-21 00:54:00,
2013-07-20 20:56:00,74.8,71.7,29.84,West,279,0.0,2.0,90,0.00,,,0.00,0.00,VWS V14.01,2013-07-21 00:56:00,
2013-07-20 20:58:00,74.7,71.6,29.84,West,278,0.0,4.0,90,0.00,,,0.00,0.00,VWS V14.01,2013-07-21 00:58:00,
2013-07-20 20:59:00,74.6,71.5,29.85,West,278,2.0,4.0,90,0.00,,,0.00,0.00,VWS V14.01,2013-07-21 00:59:00,
2013-07-20 21:01:00,74.6,71.2,29.85,West,278,0.0,4.0,89,0.00,,,0.00,0.00,VWS V14.01,2013-07-21 01:01:00,
2013-07-20 21:03:00,74.5,71.4,29.85,West,278,1.0,3.0,90,0.00,,,0.00,0.00,VWS V14.01,2013-07-21 01:03:00,
2013-07-20 21:04:00,74.4,71.3,29.85,West,278,0.0,4.0,90,0.00,,,0.00,0.00,VWS V14.01,2013-07-21 01:04:00,
2013-07-20 21:06:00,74.4,71.3,29.85,West,281,1.0,5.0,90,0.00,,,0.00,0.00,VWS V14.01,2013-07-21 01:06:00,
2013-07-20 21:08:00,74.3,71.2,29.85,West,280,0.0,0.0,90,0.00,,,0.00,0.00,VWS V14.01,2013-07-21 01:08:00,
2013-07-20 21:09:00,74.2,71.1,29.85,West,281,0.0,0.0,90,0.00,,,0.00,0.00,VWS V14.01,2013-07-21 01:09:00,
2013-07-20 21:12:00,74.1,71.0,29.85,WNW,284,0.0,6.0,90,0.00,,,0.00,0.00,VWS V14.01,2013-07-21 01:12:00,
2013-07-20 21:13:00,74.0,70.9,29.85,WNW,284,1.0,1.0,90,0.00,,,0.00,0.00,VWS V14.01,2013-07-21 01:13:00,
2013-07-20 21:14:00,74.0,70.9,29.85,WNW,284,1.0,4.0,90,0.00,,,0.00,0.00,VWS V14.01,2013-07-21 01:14:00,
2013-07-20 21:17:00,73.9,70.5,29.84,WNW,284,3.0,5.0,89,0.00,,,0.00,0.00,VWS V14.01,2013-07-21 01:17:00,
2013-07-20 21:18:00,73.8,70.7,29.84,WNW,284,4.0,6.0,90,0.00,,,0.00,0.00,VWS V14.01,2013-07-21 01:18:00,
2013-07-20 21:19:00,73.8,70.7,29.84,WNW,284,0.0,6.0,90,0.00,,,0.00,0.00,VWS V14.01,2013-07-21 01:19:00,
2013-07-20 21:22:00,73.7,70.6,29.84,WNW,284,0.0,2.0,90,0.00,,,0.00,0.00,VWS V14.01,2013-07-21 01:22:00,
2013-07-20 21:24:00,73.6,70.5,29.84,WNW,284,0.0,1.0,90,0.00,,,0.00,0.00,VWS V14.01,2013-07-21 01:24:00,
2013-07-20 21:27:00,73.5,70.4,29.85,WNW,283,2.0,5.0,90,0.00,,,0.00,0.00,VWS V14.01,2013-07-21 01:27:00,
2013-07-20 21:29:00,73.5,70.4,29.85,WNW,283,0.0,4.0,90,0.00,,,0.00,0.00,VWS V14.01,2013-07-21 01:29:00,
2013-07-20 21:30:00,73.5,70.4,29.85,WNW,283,0.0,0.0,90,0.00,,,0.00,0.00,VWS V14.01,2013-07-21 01:30:00,
2013-07-20 21:33:00,73.4,70.3,29.85,WNW,283,3.0,3.0,90,0.00,,,0.00,0.00,VWS V14.01,2013-07-21 01:33:00,
2013-07-20 21:35:00,73.4,70.3,29.85,WNW,283,0.0,3.0,90,0.00,,,0.00,0.00,VWS V14.01,2013-07-21 01:35:00,
2013-07-20 21:38:00,73.3,70.5,29.85,WNW,283,0.0,1.0,91,0.00,,,0.00,0.00,VWS V14.01,2013-07-21 01:38:00,
2013-07-20 21:40:00,73.3,70.2,29.85,WNW,283,0.0,0.0,90,0.00,,,0.00,0.00,VWS V14.01,2013-07-21 01:40:00,
2013-07-20 21:43:00,73.3,70.2,29.85,WNW,283,0.0,6.0,90,0.00,,,0.00,0.00,VWS V14.01,2013-07-21 01:43:00,
2013-07-20 21:45:00,73.2,70.4,29.85,West,281,0.0,2.0,91,0.00,,,0.00,0.00,VWS V14.01,2013-07-21 01:45:00,
2013-07-20 21:48:00,73.1,70.3,29.85,West,281,0.0,3.0,91,0.00,,,0.00,0.00,VWS V14.01,2013-07-21 01:48:00,
2013-07-20 21:50:00,73.1,70.3,29.85,West,281,1.0,1.0,91,0.00,,,0.00,0.00,VWS V14.01,2013-07-21 01:50:00,
2013-07-20 21:51:00,73.1,70.3,29.85,West,281,0.0,1.0,91,0.00,,,0.00,0.00,VWS V14.01,2013-07-21 01:51:00,
2013-07-20 21:53:00,73.0,70.2,29.85,West,281,3.0,5.0,91,0.00,,,0.00,0.00,VWS V14.01,2013-07-21 01:53:00,
2013-07-20 21:55:00,73.0,70.2,29.86,West,281,0.0,0.0,91,0.00,,,0.00,0.00,VWS V14.01,2013-07-21 01:55:00,
2013-07-20 21:56:00,73.0,70.2,29.86,West,281,0.0,2.0,91,0.00,,,0.00,0.00,VWS V14.01,2013-07-21 01:56:00,
2013-07-20 21:58:00,72.9,70.1,29.86,West,281,2.0,5.0,91,0.00,,,0.00,0.00,VWS V14.01,2013-07-21 01:58:00,
2013-07-20 22:00:00,72.9,70.1,29.86,West,281,0.0,3.0,91,0.00,,,0.00,0.00,VWS V14.01,2013-07-21 02:00:00,
2013-07-20 22:01:00,72.9,70.1,29.86,West,281,0.0,0.0,91,0.00,,,0.00,0.00,VWS V14.01,2013-07-21 02:01:00,
2013-07-20 22:02:00,72.9,70.1,29.86,West,281,1.0,2.0,91,0.00,,,0.00,0.00,VWS V14.01,2013-07-21 02:02:00,
2013-07-20 22:03:00,72.8,70.0,29.86,West,281,0.0,2.0,91,0.00,,,0.00,0.00,VWS V14.01,2013-07-21 02:03:00,
2013-07-20 22:05:00,72.8,70.0,29.86,West,281,0.0,3.0,91,0.00,,,0.00,0.00,VWS V14.01,2013-07-21 02:05:00,
2013-07-20 22:06:00,72.8,70.3,29.86,West,281,0.0,0.0,92,0.00,,,0.00,0.00,VWS V14.01,2013-07-21 02:06:00,
2013-07-20 22:07:00,72.8,70.3,29.86,West,281,0.0,0.0,92,0.00,,,0.00,0.00,VWS V14.01,2013-07-21 02:07:00,
2013-07-20 22:08:00,72.8,70.3,29.86,West,281,0.0,1.0,92,0.00,,,0.00,0.00,VWS V14.01,2013-07-21 02:08:00,
2013-07-20 22:10:00,72.7,70.2,29.86,West,281,0.0,0.0,92,0.00,,,0.00,0.00,VWS V14.01,2013-07-21 02:10:00,
2013-07-20 22:11:00,72.7,70.2,29.86,West,281,0.0,1.0,92,0.00,,,0.00,0.00,VWS V14.01,2013-07-21 02:11:00,
2013-07-20 22:13:00,72.7,70.2,29.86,West,281,0.0,0.0,92,0.00,,,0.00,0.00,VWS V14.01,2013-07-21 02:13:00,
2013-07-20 22:15:00,72.6,70.2,29.86,West,281,4.0,4.0,92,0.00,,,0.00,0.00,VWS V14.01,2013-07-21 02:15:00,
2013-07-20 22:17:00,72.6,70.2,29.86,West,281,1.0,4.0,92,0.00,,,0.00,0.00,VWS V14.01,2013-07-21 02:17:00,
2013-07-20 22:18:00,72.6,70.2,29.86,West,281,2.0,2.0,92,0.00,,,0.00,0.00,VWS V14.01,2013-07-21 02:18:00,
2013-07-20 22:21:00,72.6,70.2,29.87,West,281,0.0,0.0,92,0.00,,,0.00,0.00,VWS V14.01,2013-07-21 02:21:00,
2013-07-20 22:22:00,72.6,70.2,29.87,West,281,0.0,0.0,92,0.00,,,0.00,0.00,VWS V14.01,2013-07-21 02:22:00,
2013-07-20 22:23:00,72.5,70.1,29.87,West,281,0.0,1.0,92,0.00,,,0.00,0.00,VWS V14.01,2013-07-21 02:23:00,
2013-07-20 22:24:00,72.5,70.1,29.87,West,281,0.0,0.0,92,0.00,,,0.00,0.00,VWS V14.01,2013-07-21 02:24:00,
2013-07-20 22:26:00,72.5,70.1,29.87,West,281,0.0,0.0,92,0.00,,,0.00,0.00,VWS V14.01,2013-07-21 02:26:00,
2013-07-20 22:27:00,72.5,70.1,29.87,West,281,3.0,3.0,92,0.00,,,0.00,0.00,VWS V14.01,2013-07-21 02:27:00,
2013-07-20 22:28:00,72.4,69.9,29.87,WNW,284,0.0,5.0,92,0.00,,,0.00,0.00,VWS V14.01,2013-07-21 02:28:00,
2013-07-20 22:29:00,72.4,69.9,29.87,WNW,284,0.0,1.0,92,0.00,,,0.00,0.00,VWS V14.01,2013-07-21 02:29:00,
2013-07-20 22:31:00,72.4,69.9,29.87,WNW,284,0.0,1.0,92,0.00,,,0.00,0.00,VWS V14.01,2013-07-21 02:31:00,
2013-07-20 22:32:00,72.4,69.9,29.87,WNW,284,4.0,4.0,92,0.00,,,0.00,0.00,VWS V14.01,2013-07-21 02:32:00,
2013-07-20 22:33:00,72.4,69.9,29.87,WNW,284,0.0,4.0,92,0.00,,,0.00,0.00,VWS V14.01,2013-07-21 02:33:00,
2013-07-20 22:34:00,72.4,69.9,29.87,WNW,284,0.0,0.0,92,0.00,,,0.00,0.00,VWS V14.01,2013-07-21 02:34:00,
2013-07-20 22:36:00,72.4,69.9,29.87,WNW,284,0.0,1.0,92,0.00,,,0.00,0.00,VWS V14.01,2013-07-21 02:36:00,
2013-07-20 22:37:00,72.3,69.8,29.87,WNW,284,0.0,0.0,92,0.00,,,0.00,0.00,VWS V14.01,2013-07-21 02:37:00,
2013-07-20 22:38:00,72.3,69.8,29.87,WNW,284,0.0,0.0,92,0.00,,,0.00,0.00,VWS V14.01,2013-07-21 02:38:00,
2013-07-20 22:39:00,72.3,69.8,29.87,WNW,284,0.0,0.0,92,0.00,,,0.00,0.00,VWS V14.01,2013-07-21 02:39:00,
2013-07-20 22:41:00,72.3,70.2,29.87,WNW,284,0.0,0.0,93,0.00,,,0.00,0.00,VWS V14.01,2013-07-21 02:41:00,
2013-07-20 22:42:00,72.3,70.2,29.87,WNW,284,3.0,3.0,93,0.00,,,0.00,0.00,VWS V14.01,2013-07-21 02:42:00,
2013-07-20 22:43:00,72.3,70.2,29.87,WNW,288,1.0,2.0,93,0.00,,,0.00,0.00,VWS V14.01,2013-07-21 02:43:00,
2013-07-20 22:44:00,72.3,70.2,29.87,WNW,288,0.0,2.0,93,0.00,,,0.00,0.00,VWS V14.01,2013-07-21 02:44:00,
2013-07-20 22:46:00,72.2,70.1,29.87,WNW,288,0.0,1.0,93,0.00,,,0.00,0.00,VWS V14.01,2013-07-21 02:46:00,
2013-07-20 22:48:00,72.2,70.1,29.87,WNW,288,0.0,1.0,93,0.00,,,0.00,0.00,VWS V14.01,2013-07-21 02:48:00,
2013-07-20 22:49:00,72.2,70.1,29.87,WNW,288,0.0,0.0,93,0.00,,,0.00,0.00,VWS V14.01,2013-07-21 02:49:00,
2013-07-20 22:51:00,72.2,70.1,29.87,WNW,288,0.0,0.0,93,0.00,,,0.00,0.00,VWS V14.01,2013-07-21 02:51:00,
2013-07-20 22:53:00,72.2,70.1,29.87,WNW,288,0.0,1.0,93,0.00,,,0.00,0.00,VWS V14.01,2013-07-21 02:53:00,
2013-07-20 22:54:00,72.2,70.1,29.87,WNW,288,5.0,5.0,93,0.00,,,0.00,0.00,VWS V14.01,2013-07-21 02:54:00,
2013-07-20 22:57:00,72.1,70.0,29.87,WNW,288,0.0,1.0,93,0.00,,,0.00,0.00,VWS V14.01,2013-07-21 02:57:00,
2013-07-20 22:58:00,72.1,70.0,29.87,WNW,288,0.0,0.0,93,0.00,,,0.00,0.00,VWS V14.01,2013-07-21 02:58:00,
2013-07-20 22:59:00,72.1,70.0,29.87,WNW,288,0.0,0.0,93,0.00,,,0.00,0.00,VWS V14.01,2013-07-21 02:59:00,
2013-07-20 23:00:00,72.0,69.9,29.87,WNW,288,0.0,1.0,93,0.00,,,0.00,0.00,VWS V14.01,2013-07-21 03:00:00,
2013-07-20 23:02:00,72.0,69.9,29.87,WNW,288,0.0,0.0,93,0.00,,,0.00,0.00,VWS V14.01,2013-07-21 03:02:00,
2013-07-20 23:03:00,72.0,69.9,29.87,WNW,288,0.0,0.0,93,0.00,,,0.00,0.00,VWS V14.01,2013-07-21 03:03:00,
2013-07-20 23:04:00,72.0,69.9,29.87,WNW,288,0.0,0.0,93,0.00,,,0.00,0.00,VWS V14.01,2013-07-21 03:04:00,
2013-07-20 23:05:00,72.0,69.9,29.87,WNW,288,0.0,0.0,93,0.00,,,0.00,0.00,VWS V14.01,2013-07-21 03:05:00,
2013-07-20 23:08:00,71.9,69.8,29.87,WNW,288,1.0,1.0,93,0.00,,,0.00,0.00,VWS V14.01,2013-07-21 03:08:00,
2013-07-20 23:09:00,71.9,69.8,29.87,WNW,288,0.0,0.0,93,0.00,,,0.00,0.00,VWS V14.01,2013-07-21 03:09:00,
2013-07-20 23:10:00,71.9,69.8,29.87,WNW,288,0.0,0.0,93,0.00,,,0.00,0.00,VWS V14.01,2013-07-21 03:10:00,
2013-07-20 23:13:00,71.9,69.8,29.87,WNW,288,0.0,0.0,93,0.00,,,0.00,0.00,VWS V14.01,2013-07-21 03:13:00,
2013-07-20 23:14:00,71.9,69.8,29.87,WNW,288,0.0,0.0,93,0.00,,,0.00,0.00,VWS V14.01,2013-07-21 03:14:00,
2013-07-20 23:16:00,71.9,69.8,29.87,WNW,288,0.0,1.0,93,0.00,,,0.00,0.00,VWS V14.01,2013-07-21 03:16:00,
2013-07-20 23:18:00,71.9,69.8,29.86,WNW,288,0.0,1.0,93,0.00,,,0.00,0.00,VWS V14.01,2013-07-21 03:18:00,
2013-07-20 23:19:00,71.8,69.7,29.86,WNW,288,3.0,3.0,93,0.00,,,0.00,0.00,VWS V14.01,2013-07-21 03:19:00,
2013-07-20 23:21:00,71.8,70.0,29.86,WNW,288,0.0,0.0,94,0.00,,,0.00,0.00,VWS V14.01,2013-07-21 03:21:00,
2013-07-20 23:23:00,71.8,70.0,29.86,WNW,288,0.0,0.0,94,0.00,,,0.00,0.00,VWS V14.01,2013-07-21 03:23:00,
2013-07-20 23:24:00,71.8,70.0,29.86,WNW,288,0.0,0.0,94,0.00,,,0.00,0.00,VWS V14.01,2013-07-21 03:24:00,
2013-07-20 23:25:00,71.8,70.0,29.86,WNW,288,0.0,0.0,94,0.00,,,0.00,0.00,VWS V14.01,2013-07-21 03:25:00,
2013-07-20 23:26:00,71.8,70.0,29.86,WNW,288,0.0,1.0,94,0.00,,,0.00,0.00,VWS V14.01,2013-07-21 03:26:00,
2013-07-20 23:28:00,71.8,70.0,29.86,WNW,288,0.0,0.0,94,0.00,,,0.00,0.00,VWS V14.01,2013-07-21 03:28:00,
2013-07-20 23:29:00,71.8,70.0,29.86,WNW,288,0.0,0.0,94,0.00,,,0.00,0.00,VWS V14.01,2013-07-21 03:29:00,
2013-07-20 23:30:00,71.8,70.0,29.86,WNW,288,0.0,1.0,94,0.00,,,0.00,0.00,VWS V14.01,2013-07-21 03:30:00,
2013-07-20 23:32:00,71.8,70.0,29.86,WNW,288,0.0,0.0,94,0.00,,,0.00,0.00,VWS V14.01,2013-07-21 03:32:00,
2013-07-20 23:33:00,71.7,69.9,29.86,WNW,288,0.0,0.0,94,0.00,,,0.00,0.00,VWS V14.01,2013-07-21 03:33:00,
2013-07-20 23:34:00,71.7,69.9,29.86,WNW,288,0.0,0.0,94,0.00,,,0.00,0.00,VWS V14.01,2013-07-21 03:34:00,
2013-07-20 23:35:00,71.7,69.9,29.86,WNW,288,0.0,0.0,94,0.00,,,0.00,0.00,VWS V14.01,2013-07-21 03:35:00,
2013-07-20 23:37:00,71.7,69.9,29.86,WNW,288,0.0,0.0,94,0.00,,,0.00,0.00,VWS V14.01,2013-07-21 03:37:00,
2013-07-20 23:39:00,71.7,69.9,29.86,WNW,288,0.0,0.0,94,0.00,,,0.00,0.00,VWS V14.01,2013-07-21 03:39:00,
2013-07-20 23:41:00,71.7,69.9,29.86,WNW,288,0.0,0.0,94,0.00,,,0.00,0.00,VWS V14.01,2013-07-21 03:41:00,
2013-07-20 23:42:00,71.7,69.9,29.85,WNW,288,1.0,1.0,94,0.00,,,0.00,0.00,VWS V14.01,2013-07-21 03:42:00,
2013-07-20 23:44:00,71.7,69.9,29.86,WNW,288,0.0,0.0,94,0.00,,,0.00,0.00,VWS V14.01,2013-07-21 03:44:00,
2013-07-20 23:45:00,71.7,69.9,29.85,WNW,288,3.0,5.0,94,0.00,,,0.00,0.00,VWS V14.01,2013-07-21 03:45:00,
2013-07-20 23:46:00,71.7,69.9,29.85,WNW,288,0.0,0.0,94,0.00,,,0.00,0.00,VWS V14.01,2013-07-21 03:46:00,
2013-07-20 23:48:00,71.7,69.9,29.86,WNW,288,0.0,0.0,94,0.00,,,0.00,0.00,VWS V14.01,2013-07-21 03:48:00,
2013-07-20 23:50:00,71.7,69.9,29.86,WNW,288,0.0,0.0,94,0.00,,,0.00,0.00,VWS V14.01,2013-07-21 03:50:00,
2013-07-20 23:51:00,71.7,69.9,29.86,WNW,288,0.0,0.0,94,0.00,,,0.00,0.00,VWS V14.01,2013-07-21 03:51:00,
2013-07-20 23:53:00,71.7,69.9,29.86,WNW,288,0.0,0.0,94,0.00,,,0.00,0.00,VWS V14.01,2013-07-21 03:53:00,
2013-07-20 23:55:00,71.6,69.8,29.86,WNW,288,0.0,1.0,94,0.00,,,0.00,0.00,VWS V14.01,2013-07-21 03:55:00,
2013-07-20 23:57:00,71.6,69.8,29.86,WNW,288,0.0,0.0,94,0.00,,,0.00,0.00,VWS V14.01,2013-07-21 03:57:00,
2013-07-20 23:58:00,71.6,69.8,29.86,WNW,288,0.0,0.0,94,0.00,,,0.00,0.00,VWS V14.01,2013-07-21 03:58:00,